| time (UTC) | temp F | wind direction | speed MPH | gust MPH | rain 1hr in | rain 24hr in | rain mn in | humidity % | barometer mb |
| 20260506164018 | 71 | 212 | 7.0 | 17.0 | 0.00 | 0.63 | 0.63 | 88 | 1011.9 |
| 20260506163925 | 71 | 215 | 7.0 | 17.0 | 0.00 | 0.63 | 0.63 | 88 | 1011.9 |
| 20260506163812 | 71 | 207 | 6.0 | 17.0 | 0.00 | 0.63 | 0.63 | 88 | 1011.9 |
| 20260506163720 | 71 | 188 | 7.0 | 17.0 | 0.00 | 0.63 | 0.63 | 88 | 1011.9 |
| 20260506163632 | 71 | 174 | 7.0 | 17.0 | 0.00 | 0.63 | 0.63 | 88 | 1011.9 |
| 20260506163602 | 71 | 171 | 9.0 | 17.0 | 0.00 | 0.63 | 0.63 | 88 | 1011.9 |
| 20260506163315 | 71 | 211 | 8.0 | 17.0 | 0.00 | 0.63 | 0.63 | 89 | 1011.9 |
| 20260506163224 | 71 | 183 | 7.0 | 17.0 | 0.00 | 0.63 | 0.63 | 89 | 1011.9 |
| 20260506163114 | 71 | 219 | 6.0 | 14.0 | 0.00 | 0.63 | 0.63 | 89 | 1011.8 |
| 20260506163023 | 71 | 238 | 6.0 | 14.0 | 0.00 | 0.63 | 0.63 | 88 | 1011.8 |
| 20260506162928 | 71 | 200 | 6.0 | 14.0 | 0.00 | 0.63 | 0.63 | 89 | 1011.8 |
| 20260506162815 | 71 | 197 | 9.0 | 16.0 | 0.00 | 0.63 | 0.63 | 88 | 1011.9 |
| 20260506162722 | 71 | 211 | 9.0 | 16.0 | 0.00 | 0.63 | 0.63 | 88 | 1011.9 |
| 20260506162630 | 71 | 192 | 9.0 | 16.0 | 0.00 | 0.63 | 0.63 | 89 | 1011.8 |
| 20260506162521 | 71 | 178 | 8.0 | 16.0 | 0.00 | 0.63 | 0.63 | 89 | 1011.7 |
| 20260506162430 | 71 | 205 | 7.0 | 16.0 | 0.00 | 0.63 | 0.63 | 89 | 1011.7 |
| 20260506162316 | 71 | 180 | 7.0 | 16.0 | 0.00 | 0.63 | 0.63 | 89 | 1011.6 |
| 20260506162244 | 70 | 174 | 8.0 | 16.0 | 0.00 | 0.63 | 0.63 | 89 | 1011.6 |
| 20260506162110 | 70 | 190 | 8.0 | 15.0 | 0.00 | 0.63 | 0.63 | 89 | 1011.6 |
| 20260506162044 | 70 | 196 | 9.0 | 15.0 | 0.00 | 0.63 | 0.63 | 89 | 1011.6 |
| 20260506161818 | 70 | 240 | 9.0 | 13.0 | 0.00 | 0.63 | 0.63 | 89 | 1011.7 |
| 20260506161726 | 70 | 212 | 9.0 | 14.0 | 0.00 | 0.63 | 0.63 | 89 | 1011.7 |
| 20260506161612 | 70 | 236 | 8.0 | 14.0 | 0.00 | 0.63 | 0.63 | 89 | 1011.7 |
| 20260506161521 | 70 | 201 | 8.0 | 15.0 | 0.00 | 0.63 | 0.63 | 89 | 1011.7 |
| 20260506161413 | 70 | 178 | 8.0 | 15.0 | 0.00 | 0.63 | 0.63 | 89 | 1011.6 |
| 20260506161319 | 70 | 187 | 8.0 | 16.0 | 0.00 | 0.63 | 0.63 | 89 | 1011.6 |
| 20260506161227 | 70 | 180 | 8.0 | 16.0 | 0.00 | 0.63 | 0.63 | 89 | 1011.6 |
| 20260506161135 | 70 | 231 | 6.0 | 16.0 | 0.00 | 0.63 | 0.63 | 89 | 1011.6 |
| 20260506161021 | 70 | 218 | 7.0 | 16.0 | 0.00 | 0.63 | 0.63 | 90 | 1011.6 |
| 20260506160928 | 70 | 194 | 7.0 | 16.0 | 0.00 | 0.63 | 0.63 | 90 | 1011.7 |
| 20260506160820 | 70 | 182 | 9.0 | 16.0 | 0.00 | 0.63 | 0.63 | 89 | 1011.8 |
| 20260506160728 | 70 | 198 | 10.0 | 16.0 | 0.00 | 0.63 | 0.63 | 89 | 1011.8 |
| 20260506160615 | 70 | 211 | 7.0 | 15.0 | 0.00 | 0.63 | 0.63 | 90 | 1011.8 |
| 20260506160545 | 70 | 172 | 6.0 | 15.0 | 0.00 | 0.63 | 0.63 | 90 | 1011.8 |
| 20260506160323 | 70 | 180 | 5.0 | 11.0 | 0.00 | 0.63 | 0.63 | 90 | 1011.8 |
| 20260506160230 | 70 | 181 | 6.0 | 17.0 | 0.00 | 0.63 | 0.63 | 90 | 1011.7 |
| 20260506160117 | 70 | 293 | 6.0 | 17.0 | 0.00 | 0.63 | 0.63 | 90 | 1011.6 |
| 20260506160025 | 70 | 217 | 7.0 | 17.0 | 0.00 | 0.63 | 0.63 | 90 | 1011.6 |
| 20260506155913 | 70 | 207 | 8.0 | 17.0 | 0.00 | 0.63 | 0.63 | 90 | 1011.6 |
| 20260506155841 | 70 | 184 | 6.0 | 17.0 | 0.00 | 0.63 | 0.63 | 91 | 1011.7 |
| 20260506155711 | 70 | 262 | 5.0 | 17.0 | 0.00 | 0.63 | 0.63 | 91 | 1011.7 |
| 20260506155617 | 70 | 207 | 5.0 | 17.0 | 0.00 | 0.63 | 0.63 | 90 | 1011.7 |
| 20260506155525 | 70 | 182 | 8.0 | 17.0 | 0.00 | 0.63 | 0.63 | 90 | 1011.7 |
| 20260506155412 | 70 | 184 | 9.0 | 17.0 | 0.00 | 0.63 | 0.63 | 90 | 1011.7 |
| 20260506155340 | 70 | 193 | 11.0 | 17.0 | 0.00 | 0.63 | 0.63 | 90 | 1011.8 |
| 20260506155227 | 70 | 163 | 10.0 | 17.0 | 0.00 | 0.63 | 0.63 | 90 | 1011.8 |
| 20260506155118 | 70 | 159 | 9.0 | 13.0 | 0.00 | 0.63 | 0.63 | 91 | 1011.9 |
| 20260506155049 | 70 | 175 | 8.0 | 12.0 | 0.00 | 0.63 | 0.63 | 91 | 1011.9 |
| 20260506154822 | 70 | 227 | 7.0 | 13.0 | 0.00 | 0.63 | 0.63 | 91 | 1011.7 |
| 20260506154730 | 70 | 210 | 7.0 | 12.0 | 0.00 | 0.63 | 0.63 | 91 | 1011.7 |
| 20260506154617 | 70 | 176 | 6.0 | 12.0 | 0.00 | 0.63 | 0.63 | 91 | 1011.7 |
| 20260506154529 | 70 | 215 | 6.0 | 12.0 | 0.00 | 0.63 | 0.63 | 91 | 1011.7 |
| 20260506154416 | 70 | 190 | 6.0 | 15.0 | 0.00 | 0.63 | 0.63 | 91 | 1011.7 |
| 20260506154321 | 70 | 173 | 7.0 | 15.0 | 0.00 | 0.63 | 0.63 | 92 | 1011.7 |
| 20260506154250 | 70 | 207 | 8.0 | 15.0 | 0.00 | 0.63 | 0.63 | 92 | 1011.7 |
| 20260506154115 | 70 | 176 | 7.0 | 15.0 | 0.00 | 0.63 | 0.63 | 92 | 1011.6 |
| 20260506154023 | 70 | 191 | 8.0 | 15.0 | 0.00 | 0.63 | 0.63 | 92 | 1011.6 |
| 20260506153915 | 69 | 176 | 8.0 | 15.0 | 0.00 | 0.63 | 0.63 | 92 | 1011.6 |
| 20260506153823 | 69 | 201 | 7.0 | 15.0 | 0.00 | 0.63 | 0.63 | 92 | 1011.6 |
| 20260506153711 | 69 | 219 | 8.0 | 15.0 | 0.00 | 0.63 | 0.63 | 92 | 1011.5 |
| 20260506153619 | 69 | 189 | 9.0 | 14.0 | 0.00 | 0.63 | 0.63 | 92 | 1011.6 |
| 20260506153554 | 69 | 202 | 10.0 | 14.0 | 0.00 | 0.63 | 0.63 | 92 | 1011.6 |
| 20260506153327 | 69 | 229 | 10.0 | 14.0 | 0.00 | 0.63 | 0.63 | 92 | 1011.7 |
| 20260506153213 | 69 | 214 | 8.0 | 15.0 | 0.00 | 0.63 | 0.63 | 92 | 1011.7 |
| 20260506153121 | 69 | 195 | 8.0 | 14.0 | 0.00 | 0.63 | 0.63 | 92 | 1011.7 |
| 20260506153028 | 69 | 231 | 8.0 | 13.0 | 0.00 | 0.63 | 0.63 | 92 | 1011.7 |
| 20260506152915 | 69 | 225 | 6.0 | 11.0 | 0.00 | 0.63 | 0.63 | 93 | 1011.7 |
| 20260506152847 | 69 | 194 | 6.0 | 11.0 | 0.00 | 0.63 | 0.63 | 93 | 1011.7 |
| 20260506152713 | 69 | 229 | 6.0 | 11.0 | 0.00 | 0.63 | 0.63 | 93 | 1011.7 |
| 20260506152621 | 69 | 178 | 7.0 | 11.0 | 0.00 | 0.63 | 0.63 | 93 | 1011.7 |
| 20260506152528 | 69 | 195 | 7.0 | 17.0 | 0.00 | 0.63 | 0.63 | 93 | 1011.7 |
| 20260506152415 | 69 | 194 | 8.0 | 17.0 | 0.00 | 0.63 | 0.63 | 93 | 1011.7 |
| 20260506152323 | 69 | 187 | 9.0 | 17.0 | 0.00 | 0.63 | 0.63 | 93 | 1011.7 |
| 20260506152214 | 69 | 200 | 7.0 | 17.0 | 0.00 | 0.63 | 0.63 | 94 | 1011.6 |
| 20260506152122 | 69 | 192 | 7.0 | 17.0 | 0.00 | 0.63 | 0.63 | 94 | 1011.6 |
| 20260506152052 | 69 | 144 | 8.0 | 17.0 | 0.00 | 0.63 | 0.63 | 94 | 1011.6 |
| 20260506151826 | 69 | 165 | 10.0 | 17.0 | 0.00 | 0.63 | 0.63 | 93 | 1011.6 |
| 20260506151718 | 69 | 196 | 11.0 | 18.0 | 0.00 | 0.63 | 0.63 | 93 | 1011.6 |
| 20260506151646 | 69 | 178 | 8.0 | 17.0 | 0.00 | 0.63 | 0.63 | 94 | 1011.6 |
| 20260506151512 | 69 | 192 | 9.0 | 17.0 | 0.00 | 0.63 | 0.63 | 94 | 1011.4 |
| 20260506151418 | 69 | 204 | 10.0 | 17.0 | 0.00 | 0.63 | 0.63 | 93 | 1011.4 |
| 20260506151326 | 69 | 223 | 9.0 | 16.0 | 0.00 | 0.63 | 0.63 | 94 | 1011.4 |
| 20260506151213 | 69 | 257 | 7.0 | 16.0 | 0.00 | 0.63 | 0.63 | 94 | 1011.3 |
| 20260506151140 | 68 | 159 | 7.0 | 16.0 | 0.00 | 0.63 | 0.63 | 94 | 1011.3 |
| 20260506151032 | 68 | 217 | 10.0 | 16.0 | 0.00 | 0.63 | 0.63 | 94 | 1011.3 |
| 20260506150920 | 68 | 171 | 10.0 | 16.0 | 0.00 | 0.63 | 0.63 | 95 | 1011.3 |
| 20260506150827 | 68 | 185 | 9.0 | 14.0 | 0.00 | 0.63 | 0.63 | 95 | 1011.3 |
| 20260506150734 | 68 | 157 | 7.0 | 14.0 | 0.00 | 0.63 | 0.63 | 95 | 1011.1 |
| 20260506150621 | 68 | 176 | 6.0 | 14.0 | 0.00 | 0.63 | 0.63 | 95 | 1011.1 |
| 20260506150555 | 68 | 200 | 7.0 | 14.0 | 0.00 | 0.63 | 0.63 | 95 | 1011.2 |
| 20260506150329 | 68 | 143 | 8.0 | 14.0 | 0.00 | 0.63 | 0.63 | 95 | 1011.2 |
| 20260506150216 | 68 | 184 | 8.0 | 17.0 | 0.00 | 0.63 | 0.63 | 95 | 1011.3 |
| 20260506150123 | 68 | 153 | 8.0 | 17.0 | 0.00 | 0.63 | 0.63 | 95 | 1011.3 |
| 20260506150010 | 68 | 134 | 8.0 | 17.0 | 0.00 | 0.63 | 0.63 | 95 | 1011.3 |
| 20260506145922 | 68 | 207 | 8.0 | 17.0 | 0.00 | 0.63 | 0.63 | 95 | 1011.3 |
| 20260506145850 | 68 | 177 | 7.0 | 17.0 | 0.00 | 0.63 | 0.63 | 95 | 1011.3 |
| 20260506145718 | 67 | 175 | 6.0 | 17.0 | 0.00 | 0.63 | 0.63 | 95 | 1011.6 |
| 20260506145625 | 67 | 161 | 7.0 | 17.0 | 0.00 | 0.63 | 0.63 | 95 | 1011.6 |
| 20260506145513 | 67 | 196 | 9.0 | 17.0 | 0.00 | 0.63 | 0.63 | 95 | 1011.5 |
| 20260506145421 | 67 | 228 | 8.0 | 16.0 | 0.00 | 0.63 | 0.63 | 95 | 1011.5 |
| 20260506145312 | 67 | 189 | 6.0 | 10.0 | 0.00 | 0.63 | 0.63 | 95 | 1011.6 |
| 20260506145221 | 67 | 173 | 5.0 | 11.0 | 0.00 | 0.63 | 0.63 | 95 | 1011.6 |
| 20260506145148 | 67 | 190 | 4.0 | 11.0 | 0.00 | 0.63 | 0.63 | 95 | 1011.4 |
| 20260506145059 | 67 | 167 | 5.0 | 11.0 | 0.00 | 0.63 | 0.63 | 95 | 1011.4 |
| 20260506144813 | 67 | 144 | 7.0 | 11.0 | 0.00 | 0.63 | 0.63 | 94 | 1011.4 |
| 20260506144744 | 67 | 225 | 7.0 | 11.0 | 0.00 | 0.63 | 0.63 | 95 | 1011.4 |
| 20260506144629 | 67 | 142 | 7.0 | 11.0 | 0.00 | 0.63 | 0.63 | 95 | 1011.2 |
| 20260506144536 | 67 | 161 | 7.0 | 10.0 | 0.00 | 0.63 | 0.63 | 95 | 1011.3 |
| 20260506144422 | 67 | 151 | 7.0 | 10.0 | 0.00 | 0.63 | 0.63 | 95 | 1011.3 |
| 20260506144330 | 67 | 143 | 6.0 | 10.0 | 0.00 | 0.63 | 0.63 | 95 | 1011.4 |
| 20260506144217 | 67 | 166 | 6.0 | 10.0 | 0.00 | 0.63 | 0.63 | 95 | 1011.7 |
| 20260506144110 | 67 | 146 | 6.0 | 13.0 | 0.00 | 0.63 | 0.63 | 95 | 1011.8 |
| 20260506144019 | 67 | 185 | 6.0 | 13.0 | 0.00 | 0.63 | 0.63 | 95 | 1011.7 |
| 20260506143926 | 67 | 149 | 5.0 | 13.0 | 0.00 | 0.63 | 0.63 | 95 | 1011.7 |
| 20260506143814 | 67 | 138 | 5.0 | 13.0 | 0.01 | 0.63 | 0.63 | 95 | 1011.7 |
| 20260506143722 | 67 | 196 | 6.0 | 13.0 | 0.01 | 0.63 | 0.63 | 95 | 1011.7 |
| 20260506143629 | 67 | 186 | 6.0 | 13.0 | 0.01 | 0.63 | 0.63 | 95 | 1011.7 |
| 20260506143545 | 67 | 182 | 6.0 | 13.0 | 0.02 | 0.63 | 0.63 | 96 | 1011.7 |
| 20260506143318 | 67 | 106 | 8.0 | 14.0 | 0.03 | 0.63 | 0.63 | 96 | 1011.7 |
| 20260506143225 | 67 | 178 | 8.0 | 14.0 | 0.03 | 0.63 | 0.63 | 96 | 1011.7 |
| 20260506143112 | 67 | 182 | 5.0 | 12.0 | 0.05 | 0.63 | 0.63 | 96 | 1011.6 |
| 20260506143025 | 67 | 103 | 6.0 | 12.0 | 0.05 | 0.63 | 0.63 | 95 | 1011.6 |
| 20260506142933 | 66 | 198 | 7.0 | 12.0 | 0.07 | 0.63 | 0.63 | 95 | 1011.6 |
| 20260506142819 | 66 | 175 | 7.0 | 12.0 | 0.07 | 0.63 | 0.63 | 95 | 1011.7 |
| 20260506142727 | 66 | 178 | 6.0 | 11.0 | 0.07 | 0.63 | 0.63 | 95 | 1011.7 |
| 20260506142614 | 66 | 201 | 5.0 | 10.0 | 0.10 | 0.63 | 0.63 | 95 | 1011.7 |
| 20260506142542 | 66 | 99 | 5.0 | 10.0 | 0.10 | 0.63 | 0.63 | 95 | 1011.7 |
| 20260506142413 | 66 | 178 | 5.0 | 11.0 | 0.12 | 0.63 | 0.63 | 95 | 1011.8 |
| 20260506142339 | 66 | 135 | 6.0 | 11.0 | 0.13 | 0.63 | 0.63 | 95 | 1011.8 |
| 20260506142226 | 66 | 142 | 6.0 | 11.0 | 0.13 | 0.63 | 0.63 | 95 | 1011.8 |
| 20260506142134 | 66 | 157 | 7.0 | 11.0 | 0.14 | 0.63 | 0.63 | 95 | 1011.8 |
| 20260506142104 | 66 | 167 | 7.0 | 11.0 | 0.15 | 0.63 | 0.63 | 95 | 1011.9 |
| 20260506141821 | 66 | 179 | 7.0 | 11.0 | 0.26 | 0.63 | 0.63 | 95 | 1012.0 |
| 20260506141728 | 66 | 167 | 7.0 | 11.0 | 0.29 | 0.63 | 0.63 | 95 | 1012.0 |
| 20260506141615 | 66 | 170 | 7.0 | 12.0 | 0.29 | 0.63 | 0.63 | 95 | 1012.1 |
| 20260506141523 | 66 | 184 | 5.0 | 12.0 | 0.29 | 0.63 | 0.63 | 95 | 1012.1 |
| 20260506141411 | 66 | 212 | 6.0 | 12.0 | 0.29 | 0.63 | 0.63 | 95 | 1012.0 |
| 20260506141317 | 66 | 156 | 7.0 | 12.0 | 0.30 | 0.63 | 0.63 | 95 | 1011.9 |
| 20260506141229 | 66 | 204 | 7.0 | 12.0 | 0.30 | 0.63 | 0.63 | 95 | 1011.9 |
| 20260506141136 | 66 | 217 | 7.0 | 12.0 | 0.31 | 0.63 | 0.63 | 95 | 1011.8 |
| 20260506141023 | 66 | 165 | 7.0 | 12.0 | 0.31 | 0.63 | 0.63 | 94 | 1011.8 |
| 20260506140910 | 66 | 199 | 7.0 | 12.0 | 0.36 | 0.63 | 0.63 | 94 | 1011.7 |
| 20260506140819 | 66 | 182 | 7.0 | 12.0 | 0.36 | 0.63 | 0.63 | 94 | 1011.7 |
| 20260506140710 | 66 | 176 | 6.0 | 11.0 | 0.52 | 0.63 | 0.63 | 94 | 1011.6 |
| 20260506140617 | 66 | 186 | 6.0 | 12.0 | 0.57 | 0.63 | 0.63 | 94 | 1011.6 |
| 20260506140547 | 66 | 157 | 6.0 | 12.0 | 0.57 | 0.63 | 0.63 | 94 | 1011.6 |
| 20260506140321 | 66 | 182 | 6.0 | 11.0 | 0.57 | 0.63 | 0.63 | 94 | 1011.8 |
| 20260506140229 | 66 | 170 | 6.0 | 11.0 | 0.58 | 0.63 | 0.63 | 94 | 1011.8 |
| 20260506140120 | 66 | 191 | 6.0 | 11.0 | 0.58 | 0.63 | 0.63 | 94 | 1011.8 |
| 20260506140027 | 66 | 166 | 7.0 | 11.0 | 0.58 | 0.63 | 0.63 | 94 | 1011.8 |
| 20260506135914 | 66 | 190 | 6.0 | 11.0 | 0.59 | 0.63 | 0.63 | 94 | 1011.9 |
| 20260506135822 | 66 | 186 | 5.0 | 11.0 | 0.59 | 0.63 | 0.63 | 95 | 1011.9 |
| 20260506135711 | 66 | 189 | 4.0 | 8.0 | 0.59 | 0.63 | 0.63 | 94 | 1011.8 |
| 20260506135622 | 66 | 217 | 3.0 | 6.0 | 0.59 | 0.63 | 0.63 | 94 | 1011.8 |
| 20260506135549 | 66 | 154 | 3.0 | 6.0 | 0.60 | 0.63 | 0.63 | 94 | 1011.7 |
| 20260506135417 | 66 | 218 | 3.0 | 6.0 | 0.60 | 0.63 | 0.63 | 94 | 1011.7 |
| 20260506135325 | 66 | 167 | 3.0 | 6.0 | 0.60 | 0.63 | 0.63 | 94 | 1011.7 |
| 20260506135213 | 66 | 198 | 3.0 | 7.0 | 0.60 | 0.63 | 0.63 | 94 | 1011.6 |
| 20260506135140 | 66 | 110 | 3.0 | 8.0 | 0.60 | 0.63 | 0.63 | 94 | 1011.6 |
| 20260506135053 | 66 | 186 | 3.0 | 8.0 | 0.61 | 0.63 | 0.63 | 94 | 1011.6 |
| 20260506134828 | 66 | 140 | 4.0 | 11.0 | 0.62 | 0.63 | 0.63 | 94 | 1011.3 |
| 20260506134716 | 66 | 107 | 4.0 | 11.0 | 0.62 | 0.63 | 0.63 | 94 | 1011.2 |
| 20260506134623 | 66 | 118 | 3.0 | 11.0 | 0.62 | 0.63 | 0.63 | 93 | 1011.2 |
| 20260506134510 | 66 | 158 | 4.0 | 11.0 | 0.63 | 0.63 | 0.63 | 93 | 1011.7 |
| 20260506134441 | 66 | 233 | 6.0 | 11.0 | 0.63 | 0.63 | 0.63 | 93 | 1012.0 |
| 20260506134328 | 66 | 211 | 7.0 | 11.0 | 0.63 | 0.63 | 0.63 | 93 | 1012.0 |
| 20260506134215 | 66 | 196 | 7.0 | 11.0 | 0.63 | 0.63 | 0.63 | 94 | 1012.1 |
| 20260506134123 | 66 | 216 | 7.0 | 11.0 | 0.63 | 0.63 | 0.63 | 94 | 1012.1 |
| 20260506134029 | 66 | 183 | 7.0 | 11.0 | 0.63 | 0.63 | 0.63 | 94 | 1012.1 |
| 20260506133917 | 66 | 202 | 6.0 | 9.0 | 0.62 | 0.62 | 0.62 | 94 | 1011.7 |
| 20260506133826 | 66 | 259 | 6.0 | 9.0 | 0.62 | 0.62 | 0.62 | 94 | 1011.7 |
| 20260506133715 | 66 | 155 | 5.0 | 10.0 | 0.62 | 0.62 | 0.62 | 94 | 1010.6 |
| 20260506133622 | 66 | 116 | 4.0 | 10.0 | 0.61 | 0.61 | 0.61 | 94 | 1010.6 |
| 20260506133553 | 67 | 134 | 3.0 | 10.0 | 0.61 | 0.61 | 0.61 | 94 | 1010.5 |
| 20260506133310 | 67 | 11 | 2.0 | 10.0 | 0.60 | 0.60 | 0.60 | 94 | 1011.8 |
| 20260506133238 | 67 | 85 | 1.0 | 10.0 | 0.59 | 0.59 | 0.59 | 94 | 1012.3 |
| 20260506133126 | 67 | 86 | 3.0 | 10.0 | 0.58 | 0.58 | 0.58 | 93 | 1012.3 |
| 20260506133013 | 67 | 188 | 6.0 | 10.0 | 0.57 | 0.57 | 0.57 | 94 | 1012.8 |
| 20260506132920 | 67 | 196 | 6.0 | 10.0 | 0.57 | 0.57 | 0.57 | 94 | 1012.8 |
| 20260506132829 | 67 | 171 | 6.0 | 9.0 | 0.56 | 0.56 | 0.56 | 94 | 1013.1 |
| 20260506132739 | 67 | 205 | 5.0 | 9.0 | 0.55 | 0.55 | 0.55 | 94 | 1013.3 |
| 20260506132626 | 67 | 213 | 4.0 | 9.0 | 0.53 | 0.53 | 0.54 | 93 | 1013.3 |
| 20260506132513 | 67 | 200 | 2.0 | 8.0 | 0.52 | 0.52 | 0.52 | 93 | 1013.2 |
| 20260506132421 | 67 | 227 | 2.0 | 6.0 | 0.51 | 0.51 | 0.51 | 93 | 1013.2 |
| 20260506132328 | 67 | 238 | 2.0 | 6.0 | 0.50 | 0.50 | 0.50 | 93 | 1013.1 |
| 20260506132216 | 67 | 331 | 2.0 | 6.0 | 0.49 | 0.49 | 0.49 | 93 | 1012.5 |
| 20260506132127 | 67 | 346 | 3.0 | 6.0 | 0.48 | 0.48 | 0.48 | 93 | 1012.5 |
| 20260506132058 | 67 | 9 | 3.0 | 9.0 | 0.39 | 0.39 | 0.39 | 93 | 1012.6 |
| 20260506131810 | 67 | 293 | 2.0 | 13.0 | 0.34 | 0.34 | 0.34 | 93 | 1013.8 |
| 20260506131737 | 67 | 237 | 2.0 | 13.0 | 0.34 | 0.34 | 0.34 | 92 | 1013.5 |
| 20260506131625 | 67 | 225 | 2.0 | 17.0 | 0.34 | 0.34 | 0.34 | 92 | 1013.5 |
| 20260506131536 | 67 | 232 | 2.0 | 17.0 | 0.34 | 0.34 | 0.34 | 92 | 1012.0 |
| 20260506131421 | 67 | 55 | 4.0 | 17.0 | 0.34 | 0.34 | 0.34 | 92 | 1012.0 |
| 20260506131328 | 67 | 32 | 4.0 | 17.0 | 0.33 | 0.33 | 0.33 | 91 | 1011.9 |
| 20260506131216 | 67 | 9 | 7.0 | 17.0 | 0.33 | 0.33 | 0.33 | 91 | 1012.7 |
| 20260506131124 | 67 | 302 | 8.0 | 17.0 | 0.32 | 0.32 | 0.32 | 91 | 1012.7 |
| 20260506131016 | 67 | 323 | 10.0 | 17.0 | 0.31 | 0.31 | 0.31 | 91 | 1013.0 |
| 20260506130925 | 67 | 344 | 10.0 | 17.0 | 0.27 | 0.27 | 0.27 | 91 | 1013.0 |
| 20260506130811 | 67 | 306 | 9.0 | 17.0 | 0.18 | 0.18 | 0.18 | 90 | 1013.4 |
| 20260506130719 | 67 | 317 | 6.0 | 16.0 | 0.11 | 0.11 | 0.11 | 90 | 1013.3 |
| 20260506130627 | 67 | 311 | 5.0 | 14.0 | 0.06 | 0.06 | 0.06 | 90 | 1013.3 |
| 20260506130601 | 68 | 310 | 5.0 | 14.0 | 0.06 | 0.06 | 0.06 | 90 | 1013.2 |
| 20260506130335 | 68 | 198 | 6.0 | 14.0 | 0.05 | 0.05 | 0.05 | 90 | 1012.0 |
| 20260506130222 | 68 | 192 | 8.0 | 14.0 | 0.05 | 0.05 | 0.05 | 89 | 1012.0 |
| 20260506130129 | 68 | 186 | 8.0 | 15.0 | 0.05 | 0.05 | 0.05 | 89 | 1011.8 |
| 20260506130017 | 68 | 190 | 8.0 | 15.0 | 0.04 | 0.04 | 0.04 | 89 | 1011.7 |
| 20260506125945 | 68 | 186 | 7.0 | 13.0 | 0.04 | 0.04 | 0.04 | 89 | 1011.7 |
| 20260506125815 | 68 | 214 | 8.0 | 13.0 | 0.04 | 0.04 | 0.04 | 89 | 1011.7 |
| 20260506125722 | 68 | 209 | 7.0 | 14.0 | 0.04 | 0.04 | 0.04 | 88 | 1011.7 |
| 20260506125630 | 68 | 211 | 6.0 | 14.0 | 0.04 | 0.04 | 0.04 | 88 | 1011.5 |
| 20260506125516 | 68 | 192 | 6.0 | 13.0 | 0.03 | 0.03 | 0.03 | 88 | 1011.6 |
| 20260506125424 | 68 | 223 | 6.0 | 12.0 | 0.03 | 0.03 | 0.03 | 88 | 1011.6 |
| 20260506125315 | 68 | 198 | 6.0 | 12.0 | 0.03 | 0.03 | 0.03 | 88 | 1011.7 |
| 20260506125222 | 68 | 227 | 6.0 | 15.0 | 0.03 | 0.03 | 0.03 | 87 | 1011.7 |
| 20260506125150 | 68 | 205 | 6.0 | 15.0 | 0.02 | 0.02 | 0.02 | 87 | 1011.6 |
| 20260506125120 | 69 | 211 | 6.0 | 15.0 | 0.01 | 0.01 | 0.01 | 87 | 1011.5 |
| 20260506124812 | 69 | 203 | 7.0 | 15.0 | 0.01 | 0.01 | 0.01 | 86 | 1011.5 |
| 20260506124724 | 69 | 196 | 8.0 | 15.0 | 0.01 | 0.01 | 0.01 | 86 | 1011.5 |
| 20260506124612 | 69 | 234 | 9.0 | 15.0 | 0.00 | 0.00 | 0.00 | 86 | 1011.7 |
| 20260506124520 | 69 | 203 | 9.0 | 15.0 | 0.00 | 0.00 | 0.00 | 86 | 1011.7 |
| 20260506124428 | 69 | 189 | 8.0 | 15.0 | 0.00 | 0.00 | 0.00 | 86 | 1011.7 |
| 20260506124315 | 69 | 200 | 7.0 | 16.0 | 0.00 | 0.00 | 0.00 | 85 | 1011.6 |
| 20260506124223 | 69 | 188 | 7.0 | 16.0 | 0.00 | 0.00 | 0.00 | 85 | 1011.6 |
| 20260506124136 | 69 | 153 | 7.0 | 16.0 | 0.00 | 0.00 | 0.00 | 85 | 1011.5 |
| 20260506124043 | 69 | 234 | 7.0 | 16.0 | 0.00 | 0.00 | 0.00 | 85 | 1011.5 |
| 20260506123929 | 69 | 247 | 6.0 | 16.0 | 0.00 | 0.00 | 0.00 | 85 | 1011.6 |
| 20260506123817 | 69 | 173 | 6.0 | 16.0 | 0.00 | 0.00 | 0.00 | 84 | 1011.4 |
| 20260506123724 | 69 | 212 | 7.0 | 16.0 | 0.00 | 0.00 | 0.00 | 84 | 1011.4 |
| 20260506123632 | 69 | 198 | 9.0 | 16.0 | 0.00 | 0.00 | 0.00 | 84 | 1011.4 |
| 20260506123608 | 69 | 142 | 10.0 | 16.0 | 0.00 | 0.00 | 0.00 | 84 | 1011.4 |
| 20260506123321 | 69 | 199 | 9.0 | 16.0 | 0.00 | 0.00 | 0.00 | 84 | 1011.4 |
| 20260506123229 | 69 | 184 | 9.0 | 16.0 | 0.00 | 0.00 | 0.00 | 84 | 1011.5 |
| 20260506123117 | 69 | 189 | 11.0 | 16.0 | 0.00 | 0.00 | 0.00 | 84 | 1011.3 |
| 20260506123025 | 69 | 215 | 10.0 | 14.0 | 0.00 | 0.00 | 0.00 | 84 | 1011.3 |
| 20260506122936 | 69 | 199 | 8.0 | 14.0 | 0.00 | 0.00 | 0.00 | 84 | 1011.4 |
| 20260506122823 | 69 | 279 | 7.0 | 14.0 | 0.00 | 0.00 | 0.00 | 84 | 1011.4 |
| 20260506122730 | 69 | 205 | 6.0 | 14.0 | 0.00 | 0.00 | 0.00 | 84 | 1011.4 |
| 20260506122617 | 69 | 193 | 8.0 | 14.0 | 0.00 | 0.00 | 0.00 | 83 | 1011.4 |
| 20260506122526 | 69 | 184 | 9.0 | 14.0 | 0.00 | 0.00 | 0.00 | 84 | 1011.4 |
| 20260506122433 | 69 | 200 | 9.0 | 14.0 | 0.00 | 0.00 | 0.00 | 83 | 1011.2 |
| 20260506122323 | 69 | 180 | 8.0 | 14.0 | 0.00 | 0.00 | 0.00 | 84 | 1011.2 |
| 20260506122250 | 69 | 180 | 8.0 | 14.0 | 0.00 | 0.00 | 0.00 | 83 | 1011.2 |
| 20260506122117 | 69 | 205 | 7.0 | 14.0 | 0.00 | 0.00 | 0.00 | 84 | 1011.1 |
| 20260506122047 | 69 | 208 | 8.0 | 14.0 | 0.00 | 0.00 | 0.00 | 84 | 1011.1 |
| 20260506121822 | 69 | 208 | 9.0 | 14.0 | 0.00 | 0.00 | 0.00 | 83 | 1011.1 |
| 20260506121714 | 69 | 211 | 9.0 | 14.0 | 0.00 | 0.00 | 0.00 | 83 | 1011.0 |
| 20260506121622 | 69 | 196 | 11.0 | 14.0 | 0.00 | 0.00 | 0.00 | 83 | 1011.0 |
| 20260506121529 | 69 | 243 | 11.0 | 16.0 | 0.00 | 0.00 | 0.00 | 83 | 1010.9 |
| 20260506121418 | 69 | 206 | 9.0 | 14.0 | 0.00 | 0.00 | 0.00 | 83 | 1010.7 |
| 20260506121326 | 69 | 215 | 8.0 | 14.0 | 0.00 | 0.00 | 0.00 | 83 | 1010.7 |
| 20260506121217 | 69 | 215 | 9.0 | 14.0 | 0.00 | 0.00 | 0.00 | 83 | 1010.7 |
| 20260506121125 | 69 | 217 | 9.0 | 12.0 | 0.00 | 0.00 | 0.00 | 83 | 1010.7 |
| 20260506121014 | 69 | 223 | 7.0 | 12.0 | 0.00 | 0.00 | 0.00 | 83 | 1010.7 |
| 20260506120920 | 69 | 170 | 6.0 | 13.0 | 0.00 | 0.00 | 0.00 | 83 | 1010.7 |
| 20260506120828 | 69 | 189 | 7.0 | 13.0 | 0.00 | 0.00 | 0.00 | 83 | 1010.6 |
| 20260506120717 | 69 | 149 | 7.0 | 13.0 | 0.00 | 0.00 | 0.00 | 83 | 1010.6 |
| 20260506120649 | 69 | 180 | 6.0 | 13.0 | 0.00 | 0.00 | 0.00 | 83 | 1010.6 |
| 20260506120558 | 69 | 173 | 6.0 | 13.0 | 0.00 | 0.00 | 0.00 | 83 | 1010.5 |
| 20260506120313 | 69 | 195 | 7.0 | 16.0 | 0.00 | 0.00 | 0.00 | 83 | 1010.5 |
| 20260506120221 | 69 | 190 | 9.0 | 16.0 | 0.00 | 0.00 | 0.00 | 83 | 1010.5 |
| 20260506120112 | 69 | 163 | 8.0 | 16.0 | 0.00 | 0.00 | 0.00 | 83 | 1010.6 |
| 20260506120040 | 69 | 206 | 7.0 | 16.0 | 0.00 | 0.00 | 0.00 | 83 | 1010.6 |
| 20260506115947 | 69 | 178 | 7.0 | 16.0 | 0.00 | 0.00 | 0.00 | 83 | 1010.5 |
| 20260506115814 | 69 | 157 | 8.0 | 16.0 | 0.00 | 0.00 | 0.00 | 83 | 1010.6 |
| 20260506115721 | 69 | 230 | 8.0 | 16.0 | 0.00 | 0.00 | 0.00 | 83 | 1010.6 |
| 20260506115628 | 69 | 223 | 10.0 | 16.0 | 0.00 | 0.00 | 0.00 | 83 | 1010.5 |
| 20260506115535 | 69 | 192 | 11.0 | 19.0 | 0.00 | 0.00 | 0.00 | 83 | 1010.5 |
| 20260506115427 | 69 | 183 | 9.0 | 19.0 | 0.00 | 0.00 | 0.00 | 83 | 1010.5 |
| 20260506115315 | 69 | 188 | 7.0 | 19.0 | 0.00 | 0.00 | 0.00 | 83 | 1010.6 |
| 20260506115222 | 69 | 178 | 7.0 | 19.0 | 0.00 | 0.00 | 0.00 | 83 | 1010.6 |
| 20260506115149 | 69 | 196 | 6.0 | 19.0 | 0.00 | 0.00 | 0.00 | 83 | 1010.5 |
| 20260506115100 | 69 | 165 | 6.0 | 19.0 | 0.00 | 0.00 | 0.00 | 83 | 1010.5 |
| 20260506114816 | 69 | 165 | 6.0 | 19.0 | 0.00 | 0.00 | 0.00 | 83 | 1010.5 |
| 20260506114723 | 69 | 200 | 9.0 | 19.0 | 0.00 | 0.00 | 0.00 | 83 | 1010.5 |
| 20260506114611 | 69 | 199 | 11.0 | 19.0 | 0.00 | 0.00 | 0.00 | 83 | 1010.5 |
| 20260506114519 | 69 | 221 | 10.0 | 16.0 | 0.00 | 0.00 | 0.00 | 83 | 1010.5 |
| 20260506114446 | 69 | 206 | 8.0 | 16.0 | 0.00 | 0.00 | 0.00 | 83 | 1010.5 |
| 20260506114312 | 69 | 216 | 10.0 | 16.0 | 0.00 | 0.00 | 0.00 | 83 | 1010.4 |
| 20260506114224 | 69 | 196 | 11.0 | 16.0 | 0.00 | 0.00 | 0.00 | 83 | 1010.4 |
| 20260506114111 | 69 | 223 | 9.0 | 16.0 | 0.00 | 0.00 | 0.00 | 82 | 1010.4 |
| 20260506114018 | 69 | 209 | 6.0 | 16.0 | 0.00 | 0.00 | 0.00 | 83 | 1010.3 |
| 20260506113926 | 69 | 219 | 7.0 | 16.0 | 0.00 | 0.00 | 0.00 | 83 | 1010.3 |
| 20260506113813 | 69 | 167 | 9.0 | 16.0 | 0.00 | 0.00 | 0.00 | 82 | 1010.2 |
| 20260506113724 | 69 | 186 | 8.0 | 16.0 | 0.00 | 0.00 | 0.00 | 82 | 1010.2 |
| 20260506113633 | 69 | 218 | 8.0 | 16.0 | 0.00 | 0.00 | 0.00 | 82 | 1010.2 |
| 20260506113602 | 69 | 183 | 7.0 | 14.0 | 0.00 | 0.00 | 0.00 | 82 | 1010.2 |
| 20260506113313 | 69 | 211 | 8.0 | 13.0 | 0.00 | 0.00 | 0.00 | 82 | 1010.1 |
| 20260506113240 | 69 | 184 | 8.0 | 13.0 | 0.00 | 0.00 | 0.00 | 82 | 1010.1 |
| 20260506113130 | 69 | 190 | 9.0 | 13.0 | 0.00 | 0.00 | 0.00 | 82 | 1010.1 |
| 20260506113018 | 69 | 202 | 7.0 | 13.0 | 0.00 | 0.00 | 0.00 | 82 | 1010.2 |
| 20260506112926 | 69 | 208 | 6.0 | 13.0 | 0.00 | 0.00 | 0.00 | 82 | 1010.2 |
| 20260506112815 | 69 | 205 | 6.0 | 13.0 | 0.00 | 0.00 | 0.00 | 82 | 1010.2 |
| 20260506112722 | 69 | 188 | 6.0 | 13.0 | 0.00 | 0.00 | 0.00 | 82 | 1010.2 |
| 20260506112613 | 69 | 186 | 7.0 | 13.0 | 0.00 | 0.00 | 0.00 | 82 | 1010.1 |
| 20260506112520 | 69 | 223 | 8.0 | 13.0 | 0.00 | 0.00 | 0.00 | 82 | 1010.1 |
| 20260506112428 | 69 | 188 | 10.0 | 17.0 | 0.00 | 0.00 | 0.00 | 82 | 1010.2 |
| 20260506112315 | 69 | 227 | 10.0 | 17.0 | 0.00 | 0.00 | 0.00 | 82 | 1010.0 |
| 20260506112224 | 69 | 186 | 7.0 | 17.0 | 0.00 | 0.00 | 0.00 | 82 | 1010.0 |
| 20260506112151 | 69 | 186 | 7.0 | 17.0 | 0.00 | 0.00 | 0.00 | 82 | 1010.0 |
| 20260506112125 | 69 | 194 | 6.0 | 17.0 | 0.00 | 0.00 | 0.00 | 82 | 1010.0 |
| 20260506111815 | 69 | 211 | 8.0 | 17.0 | 0.00 | 0.00 | 0.00 | 82 | 1009.8 |
| 20260506111743 | 69 | 167 | 8.0 | 17.0 | 0.00 | 0.00 | 0.00 | 82 | 1009.8 |
| 20260506111628 | 69 | 196 | 9.0 | 17.0 | 0.00 | 0.00 | 0.00 | 82 | 1009.8 |
| 20260506111514 | 69 | 196 | 7.0 | 16.0 | 0.00 | 0.00 | 0.00 | 82 | 1009.7 |
| 20260506111426 | 69 | 191 | 6.0 | 15.0 | 0.00 | 0.00 | 0.00 | 82 | 1009.7 |
| 20260506111333 | 69 | 226 | 6.0 | 15.0 | 0.00 | 0.00 | 0.00 | 82 | 1009.7 |
| 20260506111220 | 69 | 174 | 7.0 | 15.0 | 0.00 | 0.00 | 0.00 | 82 | 1009.7 |
| 20260506111127 | 69 | 177 | 8.0 | 15.0 | 0.00 | 0.00 | 0.00 | 82 | 1009.7 |
| 20260506111034 | 69 | 187 | 10.0 | 15.0 | 0.00 | 0.00 | 0.00 | 82 | 1009.7 |
| 20260506110941 | 69 | 197 | 11.0 | 19.0 | 0.00 | 0.00 | 0.00 | 82 | 1009.7 |
| 20260506110827 | 69 | 163 | 10.0 | 19.0 | 0.00 | 0.00 | 0.00 | 82 | 1009.8 |
| 20260506110739 | 69 | 194 | 9.0 | 19.0 | 0.00 | 0.00 | 0.00 | 81 | 1009.8 |
| 20260506110625 | 69 | 211 | 7.0 | 19.0 | 0.00 | 0.00 | 0.00 | 81 | 1009.8 |
| 20260506110555 | 69 | 200 | 7.0 | 19.0 | 0.00 | 0.00 | 0.00 | 81 | 1009.8 |
| 20260506110349 | 69 | 228 | 9.0 | 19.0 | 0.00 | 0.00 | 0.00 | 81 | 1009.8 |
| 20260506110214 | 69 | 223 | 10.0 | 19.0 | 0.00 | 0.00 | 0.00 | 81 | 1009.7 |
| 20260506110125 | 69 | 169 | 11.0 | 19.0 | 0.00 | 0.00 | 0.00 | 81 | 1009.7 |
| 20260506110012 | 69 | 159 | 8.0 | 15.0 | 0.00 | 0.00 | 0.00 | 81 | 1009.6 |
| 20260506105920 | 69 | 184 | 8.0 | 13.0 | 0.00 | 0.00 | 0.00 | 81 | 1009.6 |
| 20260506105827 | 69 | 178 | 8.0 | 13.0 | 0.00 | 0.00 | 0.00 | 81 | 1009.6 |
| 20260506105715 | 69 | 184 | 7.0 | 14.0 | 0.00 | 0.00 | 0.00 | 81 | 1009.7 |
| 20260506105621 | 69 | 202 | 6.0 | 14.0 | 0.00 | 0.00 | 0.00 | 81 | 1009.7 |
| 20260506105512 | 69 | 205 | 7.0 | 14.0 | 0.00 | 0.00 | 0.00 | 81 | 1009.7 |
| 20260506105419 | 69 | 180 | 6.0 | 14.0 | 0.00 | 0.00 | 0.00 | 81 | 1009.7 |
| 20260506105327 | 69 | 198 | 5.0 | 13.0 | 0.00 | 0.00 | 0.00 | 81 | 1009.7 |
| 20260506105235 | 69 | 221 | 6.0 | 13.0 | 0.00 | 0.00 | 0.00 | 81 | 1009.8 |
| 20260506105122 | 69 | 228 | 6.0 | 13.0 | 0.00 | 0.00 | 0.00 | 81 | 1009.8 |
| 20260506105057 | 69 | 187 | 7.0 | 13.0 | 0.00 | 0.00 | 0.00 | 81 | 1009.7 |
| 20260506104831 | 69 | 196 | 7.0 | 13.0 | 0.00 | 0.00 | 0.00 | 81 | 1009.8 |
| 20260506104717 | 69 | 188 | 8.0 | 13.0 | 0.00 | 0.00 | 0.00 | 81 | 1009.8 |
| 20260506104625 | 69 | 188 | 9.0 | 13.0 | 0.00 | 0.00 | 0.00 | 81 | 1009.8 |
| 20260506104512 | 69 | 200 | 8.0 | 15.0 | 0.00 | 0.00 | 0.00 | 81 | 1009.7 |
| 20260506104424 | 69 | 200 | 7.0 | 15.0 | 0.00 | 0.00 | 0.00 | 81 | 1009.7 |
| 20260506104312 | 69 | 209 | 5.0 | 15.0 | 0.00 | 0.00 | 0.00 | 81 | 1009.8 |
| 20260506104220 | 69 | 144 | 4.0 | 15.0 | 0.00 | 0.00 | 0.00 | 81 | 1009.8 |
| 20260506104127 | 69 | 234 | 4.0 | 15.0 | 0.00 | 0.00 | 0.00 | 81 | 1009.7 |
| 20260506104015 | 69 | 188 | 7.0 | 15.0 | 0.00 | 0.00 | 0.00 | 81 | 1009.8 |
| 20260506103923 | 69 | 215 | 8.0 | 15.0 | 0.00 | 0.00 | 0.00 | 81 | 1009.8 |
| 20260506103815 | 69 | 198 | 9.0 | 15.0 | 0.00 | 0.00 | 0.00 | 81 | 1009.8 |
| 20260506103723 | 69 | 223 | 9.0 | 15.0 | 0.00 | 0.00 | 0.00 | 81 | 1009.8 |
| 20260506103652 | 69 | 231 | 8.0 | 15.0 | 0.00 | 0.00 | 0.00 | 81 | 1009.8 |
| 20260506103601 | 69 | 196 | 7.0 | 15.0 | 0.00 | 0.00 | 0.00 | 81 | 1009.7 |
| 20260506103319 | 69 | 190 | 7.0 | 15.0 | 0.00 | 0.00 | 0.00 | 81 | 1009.8 |
| 20260506103227 | 69 | 278 | 6.0 | 15.0 | 0.00 | 0.00 | 0.00 | 80 | 1009.8 |
| 20260506103115 | 69 | 188 | 4.0 | 15.0 | 0.00 | 0.00 | 0.00 | 80 | 1009.7 |
| 20260506103042 | 69 | 203 | 5.0 | 15.0 | 0.00 | 0.00 | 0.00 | 80 | 1009.7 |
| 20260506102929 | 69 | 201 | 6.0 | 15.0 | 0.00 | 0.00 | 0.00 | 80 | 1009.6 |
| 20260506102816 | 69 | 192 | 7.0 | 15.0 | 0.00 | 0.00 | 0.00 | 80 | 1009.6 |
| 20260506102727 | 69 | 197 | 7.0 | 15.0 | 0.00 | 0.00 | 0.00 | 80 | 1009.6 |
| 20260506102614 | 69 | 194 | 9.0 | 15.0 | 0.00 | 0.00 | 0.00 | 80 | 1009.7 |
| 20260506102523 | 69 | 189 | 7.0 | 15.0 | 0.00 | 0.00 | 0.00 | 80 | 1009.7 |
| 20260506102450 | 69 | 182 | 4.0 | 12.0 | 0.00 | 0.00 | 0.00 | 80 | 1009.6 |
| 20260506102315 | 69 | 171 | 5.0 | 12.0 | 0.00 | 0.00 | 0.00 | 80 | 1009.6 |
| 20260506102222 | 69 | 217 | 7.0 | 12.0 | 0.00 | 0.00 | 0.00 | 80 | 1009.6 |
| 20260506102114 | 69 | 217 | 6.0 | 13.0 | 0.00 | 0.00 | 0.00 | 80 | 1009.6 |
| 20260506102045 | 69 | 190 | 6.0 | 13.0 | 0.00 | 0.00 | 0.00 | 80 | 1009.6 |
| 20260506101818 | 69 | 205 | 8.0 | 13.0 | 0.00 | 0.00 | 0.00 | 80 | 1009.6 |
| 20260506101726 | 69 | 161 | 8.0 | 16.0 | 0.00 | 0.00 | 0.00 | 80 | 1009.6 |
| 20260506101618 | 70 | 188 | 6.0 | 16.0 | 0.00 | 0.00 | 0.00 | 80 | 1009.5 |
| 20260506101525 | 69 | 221 | 7.0 | 16.0 | 0.00 | 0.00 | 0.00 | 80 | 1009.5 |
| 20260506101411 | 69 | 182 | 10.0 | 16.0 | 0.00 | 0.00 | 0.00 | 80 | 1009.4 |
| 20260506101318 | 69 | 228 | 8.0 | 16.0 | 0.00 | 0.00 | 0.00 | 80 | 1009.4 |
| 20260506101225 | 69 | 166 | 7.0 | 19.0 | 0.00 | 0.00 | 0.00 | 80 | 1009.4 |
| 20260506101112 | 69 | 191 | 8.0 | 19.0 | 0.00 | 0.00 | 0.00 | 80 | 1009.2 |
| 20260506101025 | 70 | 183 | 9.0 | 19.0 | 0.00 | 0.00 | 0.00 | 80 | 1009.2 |
| 20260506100951 | 70 | 168 | 10.0 | 19.0 | 0.00 | 0.00 | 0.00 | 80 | 1009.3 |
| 20260506100838 | 70 | 221 | 9.0 | 19.0 | 0.00 | 0.00 | 0.00 | 80 | 1009.4 |
| 20260506100744 | 70 | 192 | 8.0 | 19.0 | 0.00 | 0.00 | 0.00 | 80 | 1009.4 |
| 20260506100628 | 70 | 182 | 10.0 | 19.0 | 0.00 | 0.00 | 0.00 | 80 | 1009.4 |
| 20260506100558 | 70 | 202 | 10.0 | 19.0 | 0.00 | 0.00 | 0.00 | 80 | 1009.3 |
| 20260506100314 | 70 | 201 | 9.0 | 18.0 | 0.00 | 0.00 | 0.00 | 80 | 1009.4 |
| 20260506100222 | 70 | 200 | 8.0 | 18.0 | 0.00 | 0.00 | 0.00 | 80 | 1009.4 |
| 20260506100130 | 70 | 210 | 8.0 | 18.0 | 0.00 | 0.00 | 0.00 | 80 | 1009.2 |
| 20260506100018 | 70 | 161 | 7.0 | 18.0 | 0.00 | 0.00 | 0.00 | 80 | 1009.3 |
| 20260506095924 | 70 | 206 | 5.0 | 18.0 | 0.00 | 0.00 | 0.00 | 80 | 1009.3 |
| 20260506095815 | 70 | 198 | 4.0 | 18.0 | 0.00 | 0.00 | 0.00 | 80 | 1009.2 |
| 20260506095722 | 70 | 209 | 6.0 | 18.0 | 0.00 | 0.00 | 0.00 | 79 | 1009.2 |
| 20260506095629 | 70 | 246 | 8.0 | 18.0 | 0.00 | 0.00 | 0.00 | 80 | 1009.2 |
| 20260506095516 | 70 | 213 | 8.0 | 18.0 | 0.00 | 0.00 | 0.00 | 79 | 1009.1 |
| 20260506095424 | 70 | 169 | 7.0 | 15.0 | 0.00 | 0.00 | 0.00 | 79 | 1009.1 |
| 20260506095329 | 70 | 153 | 6.0 | 15.0 | 0.00 | 0.00 | 0.00 | 79 | 1009.0 |
| 20260506095220 | 70 | 190 | 5.0 | 15.0 | 0.00 | 0.00 | 0.00 | 79 | 1008.9 |
| 20260506095127 | 70 | 188 | 6.0 | 15.0 | 0.00 | 0.00 | 0.00 | 79 | 1008.9 |
| 20260506095057 | 70 | 202 | 6.0 | 15.0 | 0.00 | 0.00 | 0.00 | 79 | 1008.9 |
| 20260506094811 | 70 | 196 | 7.0 | 14.0 | 0.00 | 0.00 | 0.00 | 79 | 1008.8 |
| 20260506094722 | 70 | 182 | 5.0 | 11.0 | 0.00 | 0.00 | 0.00 | 79 | 1008.8 |
| 20260506094630 | 70 | 174 | 3.0 | 11.0 | 0.00 | 0.00 | 0.00 | 79 | 1008.8 |
| 20260506094538 | 70 | 174 | 5.0 | 11.0 | 0.00 | 0.00 | 0.00 | 79 | 1008.9 |
| 20260506094425 | 70 | 210 | 6.0 | 11.0 | 0.00 | 0.00 | 0.00 | 79 | 1008.9 |
| 20260506094314 | 70 | 181 | 6.0 | 11.0 | 0.00 | 0.00 | 0.00 | 79 | 1009.0 |
| 20260506094222 | 70 | 200 | 6.0 | 11.0 | 0.00 | 0.00 | 0.00 | 79 | 1009.0 |
| 20260506094113 | 70 | 214 | 6.0 | 16.0 | 0.00 | 0.00 | 0.00 | 79 | 1008.9 |
| 20260506094022 | 70 | 187 | 7.0 | 16.0 | 0.00 | 0.00 | 0.00 | 79 | 1008.9 |
| 20260506093930 | 70 | 209 | 9.0 | 16.0 | 0.00 | 0.00 | 0.00 | 79 | 1008.8 |
| 20260506093818 | 70 | 175 | 9.0 | 16.0 | 0.00 | 0.00 | 0.00 | 79 | 1008.9 |
| 20260506093725 | 70 | 190 | 9.0 | 16.0 | 0.00 | 0.00 | 0.00 | 79 | 1008.9 |
| 20260506093633 | 70 | 177 | 8.0 | 16.0 | 0.00 | 0.00 | 0.00 | 79 | 1008.9 |
| 20260506093547 | 70 | 196 | 10.0 | 16.0 | 0.00 | 0.00 | 0.00 | 79 | 1008.9 |
| 20260506093320 | 70 | 192 | 9.0 | 16.0 | 0.00 | 0.00 | 0.00 | 78 | 1008.8 |
| 20260506093228 | 70 | 183 | 7.0 | 18.0 | 0.00 | 0.00 | 0.00 | 78 | 1008.8 |
| 20260506093115 | 70 | 184 | 8.0 | 18.0 | 0.00 | 0.00 | 0.00 | 78 | 1009.0 |
| 20260506093026 | 70 | 200 | 10.0 | 18.0 | 0.00 | 0.00 | 0.00 | 78 | 1009.0 |
| 20260506092934 | 70 | 194 | 9.0 | 18.0 | 0.00 | 0.00 | 0.00 | 78 | 1008.9 |
| 20260506092821 | 70 | 208 | 7.0 | 18.0 | 0.00 | 0.00 | 0.00 | 78 | 1008.9 |
| 20260506092729 | 70 | 182 | 9.0 | 18.0 | 0.00 | 0.00 | 0.00 | 78 | 1009.0 |
| 20260506092617 | 70 | 179 | 12.0 | 18.0 | 0.00 | 0.00 | 0.00 | 78 | 1008.9 |
| 20260506092543 | 70 | 174 | 10.0 | 18.0 | 0.00 | 0.00 | 0.00 | 78 | 1008.9 |
| 20260506092414 | 70 | 205 | 9.0 | 15.0 | 0.00 | 0.00 | 0.00 | 78 | 1009.0 |
| 20260506092321 | 70 | 197 | 10.0 | 15.0 | 0.00 | 0.00 | 0.00 | 78 | 1009.0 |
| 20260506092228 | 70 | 206 | 10.0 | 17.0 | 0.00 | 0.00 | 0.00 | 78 | 1008.9 |
| 20260506092116 | 70 | 199 | 11.0 | 19.0 | 0.00 | 0.00 | 0.00 | 78 | 1009.1 |
| 20260506092046 | 70 | 182 | 10.0 | 19.0 | 0.00 | 0.00 | 0.00 | 78 | 1009.1 |
| 20260506091824 | 70 | 202 | 11.0 | 22.0 | 0.00 | 0.00 | 0.00 | 78 | 1009.0 |
| 20260506091730 | 70 | 211 | 11.0 | 22.0 | 0.00 | 0.00 | 0.00 | 78 | 1009.0 |
| 20260506091615 | 70 | 227 | 9.0 | 22.0 | 0.00 | 0.00 | 0.00 | 78 | 1009.0 |
| 20260506091522 | 70 | 195 | 9.0 | 22.0 | 0.00 | 0.00 | 0.00 | 78 | 1009.0 |
| 20260506091429 | 70 | 223 | 11.0 | 22.0 | 0.00 | 0.00 | 0.00 | 78 | 1008.9 |
| 20260506091317 | 70 | 198 | 12.0 | 22.0 | 0.00 | 0.00 | 0.00 | 78 | 1009.0 |
| 20260506091227 | 70 | 188 | 10.0 | 22.0 | 0.00 | 0.00 | 0.00 | 78 | 1009.0 |
| 20260506091136 | 70 | 246 | 10.0 | 22.0 | 0.00 | 0.00 | 0.00 | 78 | 1009.1 |
| 20260506091023 | 70 | 213 | 12.0 | 22.0 | 0.00 | 0.00 | 0.00 | 78 | 1009.1 |
| 20260506090929 | 70 | 187 | 11.0 | 23.0 | 0.00 | 0.00 | 0.00 | 78 | 1009.0 |
| 20260506090817 | 70 | 213 | 11.0 | 18.0 | 0.00 | 0.00 | 0.00 | 78 | 1009.1 |
| 20260506090725 | 70 | 223 | 10.0 | 18.0 | 0.00 | 0.00 | 0.00 | 77 | 1009.1 |
| 20260506090618 | 70 | 194 | 8.0 | 22.0 | 0.00 | 0.00 | 0.00 | 77 | 1009.0 |
| 20260506090549 | 70 | 200 | 7.0 | 22.0 | 0.00 | 0.00 | 0.00 | 77 | 1009.0 |
| 20260506090321 | 70 | 179 | 9.0 | 22.0 | 0.00 | 0.00 | 0.00 | 77 | 1009.0 |
| 20260506090250 | 70 | 215 | 10.0 | 22.0 | 0.00 | 0.00 | 0.00 | 77 | 1009.0 |
| 20260506090118 | 70 | 279 | 8.0 | 22.0 | 0.00 | 0.00 | 0.00 | 77 | 1009.0 |
| 20260506090029 | 70 | 223 | 8.0 | 22.0 | 0.00 | 0.00 | 0.00 | 77 | 1009.0 |
| 20260506085914 | 70 | 177 | 10.0 | 22.0 | 0.00 | 0.00 | 0.00 | 77 | 1008.9 |
| 20260506085822 | 70 | 205 | 10.0 | 22.0 | 0.00 | 0.00 | 0.00 | 78 | 1008.9 |
| 20260506085729 | 70 | 186 | 11.0 | 22.0 | 0.00 | 0.00 | 0.00 | 77 | 1008.9 |
| 20260506085614 | 70 | 192 | 12.0 | 22.0 | 0.00 | 0.00 | 0.00 | 77 | 1009.0 |
| 20260506085543 | 70 | 204 | 11.0 | 22.0 | 0.00 | 0.00 | 0.00 | 77 | 1009.0 |
| 20260506085412 | 70 | 198 | 10.0 | 18.0 | 0.00 | 0.00 | 0.00 | 77 | 1009.0 |
| 20260506085320 | 70 | 176 | 9.0 | 18.0 | 0.00 | 0.00 | 0.00 | 77 | 1009.0 |
| 20260506085227 | 70 | 190 | 8.0 | 18.0 | 0.00 | 0.00 | 0.00 | 77 | 1009.1 |
| 20260506085114 | 70 | 217 | 8.0 | 18.0 | 0.00 | 0.00 | 0.00 | 77 | 1009.0 |
| 20260506085044 | 70 | 186 | 8.0 | 18.0 | 0.00 | 0.00 | 0.00 | 77 | 1009.0 |
| 20260506084822 | 70 | 176 | 9.0 | 18.0 | 0.00 | 0.00 | 0.00 | 77 | 1009.1 |
| 20260506084729 | 70 | 178 | 10.0 | 18.0 | 0.00 | 0.00 | 0.00 | 77 | 1008.9 |
| 20260506084637 | 70 | 199 | 9.0 | 21.0 | 0.00 | 0.00 | 0.00 | 77 | 1008.9 |
| 20260506084543 | 70 | 259 | 7.0 | 15.0 | 0.00 | 0.00 | 0.00 | 77 | 1008.9 |
| 20260506084410 | 70 | 162 | 6.0 | 15.0 | 0.00 | 0.00 | 0.00 | 77 | 1008.9 |
| 20260506084317 | 70 | 238 | 7.0 | 15.0 | 0.00 | 0.00 | 0.00 | 77 | 1008.8 |
| 20260506084245 | 70 | 175 | 7.0 | 15.0 | 0.00 | 0.00 | 0.00 | 77 | 1008.8 |
| 20260506084117 | 70 | 192 | 8.0 | 15.0 | 0.00 | 0.00 | 0.00 | 77 | 1008.8 |
| 20260506084045 | 70 | 208 | 9.0 | 19.0 | 0.00 | 0.00 | 0.00 | 77 | 1008.8 |
| 20260506083911 | 70 | 209 | 8.0 | 19.0 | 0.00 | 0.00 | 0.00 | 77 | 1008.9 |
| 20260506083838 | 70 | 189 | 7.0 | 19.0 | 0.00 | 0.00 | 0.00 | 76 | 1008.9 |
| 20260506083724 | 70 | 177 | 8.0 | 19.0 | 0.00 | 0.00 | 0.00 | 76 | 1008.9 |
| 20260506083611 | 70 | 180 | 7.0 | 19.0 | 0.00 | 0.00 | 0.00 | 76 | 1008.9 |
| 20260506083544 | 70 | 168 | 8.0 | 19.0 | 0.00 | 0.00 | 0.00 | 76 | 1008.9 |
| 20260506083337 | 70 | 198 | 10.0 | 19.0 | 0.00 | 0.00 | 0.00 | 76 | 1008.9 |
| 20260506083242 | 70 | 190 | 12.0 | 19.0 | 0.00 | 0.00 | 0.00 | 76 | 1008.9 |
| 20260506083128 | 70 | 202 | 12.0 | 19.0 | 0.00 | 0.00 | 0.00 | 76 | 1008.9 |
| 20260506083015 | 70 | 217 | 9.0 | 15.0 | 0.00 | 0.00 | 0.00 | 76 | 1009.0 |
| 20260506082927 | 70 | 166 | 8.0 | 15.0 | 0.00 | 0.00 | 0.00 | 76 | 1009.0 |
| 20260506082814 | 70 | 211 | 8.0 | 16.0 | 0.00 | 0.00 | 0.00 | 76 | 1008.9 |
| 20260506082721 | 70 | 190 | 8.0 | 16.0 | 0.00 | 0.00 | 0.00 | 76 | 1008.9 |
| 20260506082629 | 70 | 195 | 7.0 | 16.0 | 0.00 | 0.00 | 0.00 | 76 | 1009.0 |
| 20260506082516 | 70 | 210 | 8.0 | 18.0 | 0.00 | 0.00 | 0.00 | 75 | 1008.9 |
| 20260506082422 | 70 | 229 | 7.0 | 19.0 | 0.00 | 0.00 | 0.00 | 75 | 1008.9 |
| 20260506082313 | 70 | 182 | 7.0 | 19.0 | 0.00 | 0.00 | 0.00 | 75 | 1008.9 |
| 20260506082220 | 71 | 200 | 9.0 | 19.0 | 0.00 | 0.00 | 0.00 | 75 | 1008.9 |
| 20260506082129 | 71 | 242 | 10.0 | 19.0 | 0.00 | 0.00 | 0.00 | 74 | 1008.8 |
| 20260506082100 | 71 | 200 | 10.0 | 19.0 | 0.00 | 0.00 | 0.00 | 74 | 1008.8 |
| 20260506081818 | 71 | 203 | 10.0 | 19.0 | 0.00 | 0.00 | 0.00 | 74 | 1008.8 |
| 20260506081724 | 71 | 186 | 12.0 | 19.0 | 0.00 | 0.00 | 0.00 | 74 | 1008.8 |
| 20260506081611 | 71 | 167 | 12.0 | 19.0 | 0.00 | 0.00 | 0.00 | 74 | 1008.8 |
| 20260506081519 | 71 | 184 | 10.0 | 18.0 | 0.00 | 0.00 | 0.00 | 74 | 1008.9 |
| 20260506081425 | 71 | 167 | 10.0 | 16.0 | 0.00 | 0.00 | 0.00 | 74 | 1008.9 |
| 20260506081313 | 71 | 171 | 8.0 | 16.0 | 0.00 | 0.00 | 0.00 | 74 | 1008.8 |
| 20260506081223 | 71 | 192 | 7.0 | 16.0 | 0.00 | 0.00 | 0.00 | 74 | 1008.8 |
| 20260506081111 | 71 | 228 | 7.0 | 16.0 | 0.00 | 0.00 | 0.00 | 74 | 1008.9 |
| 20260506081018 | 71 | 216 | 10.0 | 16.0 | 0.00 | 0.00 | 0.00 | 73 | 1008.9 |
| 20260506080925 | 71 | 207 | 9.0 | 16.0 | 0.00 | 0.00 | 0.00 | 73 | 1008.9 |
| 20260506080832 | 71 | 197 | 7.0 | 24.0 | 0.00 | 0.00 | 0.00 | 73 | 1008.8 |
| 20260506080717 | 71 | 184 | 7.0 | 24.0 | 0.00 | 0.00 | 0.00 | 73 | 1008.8 |
| 20260506080628 | 71 | 187 | 7.0 | 24.0 | 0.00 | 0.00 | 0.00 | 73 | 1008.8 |
| 20260506080558 | 71 | 223 | 6.0 | 24.0 | 0.00 | 0.00 | 0.00 | 73 | 1008.9 |
| 20260506080312 | 71 | 196 | 8.0 | 24.0 | 0.00 | 0.00 | 0.00 | 73 | 1008.7 |
| 20260506080218 | 71 | 187 | 8.0 | 24.0 | 0.00 | 0.00 | 0.00 | 73 | 1008.8 |
| 20260506080146 | 71 | 221 | 10.0 | 24.0 | 0.00 | 0.00 | 0.00 | 73 | 1008.8 |
| 20260506073330 | 71 | 230 | 10.0 | 19.0 | 0.00 | 0.00 | 0.00 | 71 | 1008.8 |
| 20260506073218 | 71 | 191 | 11.0 | 19.0 | 0.00 | 0.00 | 0.00 | 71 | 1008.8 |
| 20260506073129 | 71 | 207 | 11.0 | 19.0 | 0.00 | 0.00 | 0.00 | 71 | 1008.8 |
| 20260506073016 | 71 | 198 | 11.0 | 14.0 | 0.00 | 0.00 | 0.00 | 71 | 1008.9 |
| 20260506072922 | 71 | 210 | 10.0 | 15.0 | 0.00 | 0.00 | 0.00 | 71 | 1008.9 |
| 20260506072828 | 71 | 203 | 10.0 | 15.0 | 0.00 | 0.00 | 0.00 | 71 | 1008.8 |
| 20260506072716 | 71 | 191 | 9.0 | 15.0 | 0.00 | 0.00 | 0.00 | 71 | 1008.8 |
| 20260506072622 | 71 | 199 | 8.0 | 15.0 | 0.00 | 0.00 | 0.00 | 71 | 1008.8 |
| 20260506072513 | 71 | 215 | 8.0 | 15.0 | 0.00 | 0.00 | 0.00 | 71 | 1008.8 |
| 20260506072421 | 71 | 180 | 8.0 | 16.0 | 0.00 | 0.00 | 0.00 | 71 | 1008.8 |
| 20260506072328 | 71 | 168 | 8.0 | 18.0 | 0.00 | 0.00 | 0.00 | 71 | 1008.8 |
| 20260506072235 | 71 | 161 | 7.0 | 18.0 | 0.00 | 0.00 | 0.00 | 71 | 1008.8 |
| 20260506072121 | 71 | 199 | 7.0 | 18.0 | 0.00 | 0.00 | 0.00 | 71 | 1008.8 |
| 20260506072054 | 71 | 145 | 7.0 | 18.0 | 0.00 | 0.00 | 0.00 | 71 | 1008.8 |
| 20260506071827 | 71 | 192 | 9.0 | 18.0 | 0.00 | 0.00 | 0.00 | 71 | 1008.8 |
| 20260506071715 | 71 | 219 | 11.0 | 18.0 | 0.00 | 0.00 | 0.00 | 71 | 1008.8 |
| 20260506071623 | 71 | 180 | 11.0 | 18.0 | 0.00 | 0.00 | 0.00 | 71 | 1008.8 |
| 20260506071529 | 71 | 200 | 11.0 | 18.0 | 0.00 | 0.00 | 0.00 | 71 | 1008.7 |
| 20260506071441 | 71 | 209 | 10.0 | 16.0 | 0.00 | 0.00 | 0.00 | 71 | 1008.7 |
| 20260506071326 | 71 | 207 | 7.0 | 16.0 | 0.00 | 0.00 | 0.00 | 71 | 1008.7 |
| 20260506071214 | 71 | 191 | 6.0 | 16.0 | 0.00 | 0.00 | 0.00 | 71 | 1008.6 |
| 20260506071122 | 71 | 197 | 9.0 | 16.0 | 0.00 | 0.00 | 0.00 | 71 | 1008.6 |
| 20260506071030 | 71 | 196 | 9.0 | 16.0 | 0.00 | 0.00 | 0.00 | 71 | 1008.5 |
| 20260506070938 | 71 | 151 | 9.0 | 16.0 | 0.00 | 0.00 | 0.00 | 70 | 1008.5 |
| 20260506070828 | 71 | 197 | 8.0 | 16.0 | 0.00 | 0.00 | 0.00 | 70 | 1008.5 |
| 20260506070736 | 71 | 163 | 7.0 | 16.0 | 0.00 | 0.00 | 0.00 | 70 | 1008.7 |
| 20260506070642 | 71 | 209 | 6.0 | 16.0 | 0.00 | 0.00 | 0.00 | 70 | 1008.7 |
| 20260506070551 | 71 | 191 | 6.0 | 16.0 | 0.00 | 0.00 | 0.00 | 70 | 1008.6 |
| 20260506070323 | 71 | 195 | 8.0 | 16.0 | 0.00 | 0.00 | 0.00 | 70 | 1008.6 |
| 20260506070215 | 71 | 197 | 8.0 | 16.0 | 0.00 | 0.00 | 0.00 | 70 | 1008.5 |
| 20260506070123 | 71 | 198 | 7.0 | 13.0 | 0.00 | 0.00 | 0.00 | 70 | 1008.5 |
| 20260506062514 | 71 | 192 | 5.0 | 12.0 | 0.00 | 0.00 | 0.00 | 70 | 1008.8 |
| 20260506062442 | 71 | 183 | 6.0 | 14.0 | 0.00 | 0.00 | 0.00 | 70 | 1008.8 |
| 20260506062329 | 71 | 207 | 6.0 | 14.0 | 0.00 | 0.00 | 0.00 | 70 | 1008.8 |
| 20260506062256 | 71 | 140 | 6.0 | 14.0 | 0.00 | 0.00 | 0.00 | 70 | 1008.7 |
| 20260506062046 | 71 | 146 | 6.0 | 14.0 | 0.00 | 0.00 | 0.00 | 70 | 1008.8 |
| 20260506061819 | 71 | 188 | 7.0 | 14.0 | 0.00 | 0.00 | 0.00 | 70 | 1009.0 |
| 20260506061747 | 71 | 193 | 8.0 | 14.0 | 0.00 | 0.00 | 0.00 | 70 | 1009.1 |
| 20260506061634 | 71 | 190 | 9.0 | 14.0 | 0.00 | 0.00 | 0.00 | 70 | 1009.2 |
| 20260506061541 | 71 | 202 | 8.0 | 14.0 | 0.00 | 0.00 | 0.00 | 70 | 1009.2 |
| 20260506061427 | 71 | 242 | 8.0 | 13.0 | 0.00 | 0.00 | 0.00 | 70 | 1009.1 |
| 20260506061320 | 71 | 189 | 9.0 | 12.0 | 0.00 | 0.00 | 0.00 | 70 | 1009.2 |
| 20260506061227 | 71 | 242 | 8.0 | 12.0 | 0.00 | 0.00 | 0.00 | 70 | 1009.2 |
| 20260506061114 | 71 | 196 | 6.0 | 11.0 | 0.00 | 0.00 | 0.00 | 70 | 1009.2 |
| 20260506061020 | 71 | 183 | 6.0 | 11.0 | 0.00 | 0.00 | 0.00 | 70 | 1009.2 |
| 20260506060927 | 71 | 190 | 6.0 | 11.0 | 0.00 | 0.00 | 0.00 | 69 | 1009.2 |
| 20260506060819 | 71 | 191 | 6.0 | 11.0 | 0.00 | 0.00 | 0.00 | 69 | 1009.2 |
| 20260506060726 | 71 | 233 | 5.0 | 11.0 | 0.00 | 0.00 | 0.00 | 69 | 1009.2 |
| 20260506060633 | 71 | 218 | 6.0 | 11.0 | 0.00 | 0.00 | 0.00 | 69 | 1009.2 |
| 20260506060603 | 71 | 132 | 6.0 | 12.0 | 0.00 | 0.00 | 0.00 | 69 | 1009.2 |
| 20260506060337 | 71 | 196 | 6.0 | 12.0 | 0.00 | 0.00 | 0.00 | 69 | 1009.2 |
| 20260506060226 | 71 | 187 | 6.0 | 12.0 | 0.00 | 0.00 | 0.00 | 69 | 1009.2 |
| 20260506060115 | 71 | 169 | 6.0 | 13.0 | 0.00 | 0.00 | 0.00 | 69 | 1009.2 |
| 20260506051316 | 71 | 182 | 6.0 | 10.0 | 0.00 | 0.00 | 0.00 | 67 | 1009.7 |
| 20260506051243 | 71 | 186 | 6.0 | 10.0 | 0.00 | 0.00 | 0.00 | 68 | 1009.7 |
| 20260506051129 | 71 | 166 | 7.0 | 10.0 | 0.00 | 0.00 | 0.00 | 67 | 1009.7 |
| 20260506051016 | 71 | 207 | 6.0 | 10.0 | 0.00 | 0.00 | 0.00 | 67 | 1009.7 |
| 20260506050922 | 71 | 197 | 6.0 | 10.0 | 0.00 | 0.00 | 0.00 | 67 | 1009.7 |
| 20260506050829 | 71 | 154 | 5.0 | 10.0 | 0.00 | 0.00 | 0.00 | 68 | 1009.7 |
| 20260506050741 | 71 | 177 | 5.0 | 10.0 | 0.00 | 0.00 | 0.00 | 67 | 1009.8 |
| 20260506050627 | 71 | 156 | 6.0 | 10.0 | 0.00 | 0.00 | 0.00 | 67 | 1009.8 |
| 20260506050557 | 71 | 198 | 6.0 | 10.0 | 0.00 | 0.00 | 0.00 | 67 | 1009.7 |
| 20260506050350 | 71 | 183 | 7.0 | 10.0 | 0.00 | 0.00 | 0.00 | 67 | 1009.9 |
| 20260506050215 | 71 | 194 | 7.0 | 11.0 | 0.00 | 0.00 | 0.00 | 67 | 1010.0 |
| 20260506050124 | 71 | 136 | 7.0 | 10.0 | 0.00 | 0.00 | 0.00 | 67 | 1010.0 |
| 20260506045124 | 71 | 226 | 5.0 | 13.0 | 0.00 | 0.00 | 0.00 | 67 | 1009.9 |
| 20260506045058 | 71 | 178 | 5.0 | 13.0 | 0.00 | 0.00 | 0.00 | 67 | 1010.0 |
| 20260506044832 | 71 | 216 | 8.0 | 11.0 | 0.00 | 0.00 | 0.00 | 67 | 1009.9 |
| 20260506044738 | 71 | 164 | 8.0 | 12.0 | 0.00 | 0.00 | 0.00 | 67 | 1009.9 |
| 20260506044623 | 71 | 192 | 8.0 | 12.0 | 0.00 | 0.00 | 0.00 | 67 | 1009.9 |
| 20260506044511 | 71 | 190 | 7.0 | 12.0 | 0.00 | 0.00 | 0.00 | 67 | 1010.0 |
| 20260506044418 | 71 | 197 | 8.0 | 12.0 | 0.00 | 0.00 | 0.00 | 67 | 1009.9 |
| 20260506044311 | 71 | 185 | 8.0 | 12.0 | 0.00 | 0.00 | 0.00 | 67 | 1009.8 |
| 20260506044217 | 71 | 202 | 6.0 | 10.0 | 0.00 | 0.00 | 0.00 | 67 | 1009.8 |
| 20260506044144 | 72 | 167 | 5.0 | 10.0 | 0.00 | 0.00 | 0.00 | 67 | 1009.8 |
| 20260506044011 | 71 | 171 | 5.0 | 10.0 | 0.00 | 0.00 | 0.00 | 67 | 1009.8 |
| 20260506043918 | 72 | 155 | 6.0 | 15.0 | 0.00 | 0.00 | 0.00 | 67 | 1009.9 |
| 20260506043847 | 71 | 199 | 6.0 | 15.0 | 0.00 | 0.00 | 0.00 | 67 | 1009.9 |
| 20260506043713 | 72 | 180 | 6.0 | 15.0 | 0.00 | 0.00 | 0.00 | 67 | 1009.8 |
| 20260506043624 | 71 | 182 | 5.0 | 15.0 | 0.00 | 0.00 | 0.00 | 67 | 1009.8 |
| 20260506043555 | 72 | 207 | 5.0 | 15.0 | 0.00 | 0.00 | 0.00 | 67 | 1009.7 |
| 20260506043328 | 72 | 201 | 6.0 | 15.0 | 0.00 | 0.00 | 0.00 | 67 | 1009.8 |
| 20260506043216 | 72 | 156 | 7.0 | 15.0 | 0.00 | 0.00 | 0.00 | 67 | 1009.9 |
| 20260506043125 | 72 | 174 | 7.0 | 15.0 | 0.00 | 0.00 | 0.00 | 67 | 1009.9 |
| 20260506043015 | 72 | 191 | 9.0 | 14.0 | 0.00 | 0.00 | 0.00 | 67 | 1010.0 |
| 20260506042922 | 72 | 189 | 9.0 | 14.0 | 0.00 | 0.00 | 0.00 | 67 | 1010.0 |
| 20260506042829 | 72 | 166 | 8.0 | 14.0 | 0.00 | 0.00 | 0.00 | 67 | 1010.0 |
| 20260506042716 | 72 | 171 | 7.0 | 12.0 | 0.00 | 0.00 | 0.00 | 67 | 1010.1 |
| 20260506042624 | 72 | 190 | 9.0 | 12.0 | 0.00 | 0.00 | 0.00 | 67 | 1010.1 |
| 20260506042515 | 71 | 207 | 9.0 | 13.0 | 0.00 | 0.00 | 0.00 | 67 | 1010.1 |
| 20260506042423 | 72 | 162 | 8.0 | 13.0 | 0.00 | 0.00 | 0.00 | 67 | 1010.1 |
| 20260506042311 | 72 | 182 | 9.0 | 13.0 | 0.00 | 0.00 | 0.00 | 67 | 1010.0 |
| 20260506042220 | 72 | 209 | 8.0 | 11.0 | 0.00 | 0.00 | 0.00 | 67 | 1010.0 |
| 20260506042127 | 72 | 190 | 7.0 | 12.0 | 0.00 | 0.00 | 0.00 | 67 | 1010.0 |
| 20260506042103 | 72 | 197 | 7.0 | 11.0 | 0.00 | 0.00 | 0.00 | 67 | 1010.0 |
| 20260506041837 | 72 | 173 | 6.0 | 14.0 | 0.00 | 0.00 | 0.00 | 67 | 1010.1 |
| 20260506041722 | 72 | 208 | 6.0 | 14.0 | 0.00 | 0.00 | 0.00 | 67 | 1010.1 |
| 20260506041651 | 72 | 169 | 7.0 | 14.0 | 0.00 | 0.00 | 0.00 | 67 | 1010.0 |
| 20260506041518 | 72 | 187 | 7.0 | 14.0 | 0.00 | 0.00 | 0.00 | 67 | 1010.0 |
| 20260506041425 | 72 | 188 | 6.0 | 14.0 | 0.00 | 0.00 | 0.00 | 67 | 1010.0 |
| 20260506041316 | 72 | 215 | 5.0 | 14.0 | 0.00 | 0.00 | 0.00 | 67 | 1010.0 |
| 20260506041225 | 72 | 178 | 7.0 | 14.0 | 0.00 | 0.00 | 0.00 | 67 | 1010.0 |
| 20260506041112 | 72 | 174 | 7.0 | 14.0 | 0.00 | 0.00 | 0.00 | 67 | 1010.1 |
| 20260506041020 | 72 | 192 | 6.0 | 10.0 | 0.00 | 0.00 | 0.00 | 67 | 1010.1 |
| 20260506040927 | 72 | 169 | 6.0 | 10.0 | 0.00 | 0.00 | 0.00 | 67 | 1010.1 |
| 20260506040813 | 72 | 199 | 5.0 | 10.0 | 0.00 | 0.00 | 0.00 | 67 | 1010.1 |
| 20260506040724 | 72 | 195 | 5.0 | 10.0 | 0.00 | 0.00 | 0.00 | 67 | 1010.1 |
| 20260506040651 | 72 | 174 | 5.0 | 10.0 | 0.00 | 0.00 | 0.00 | 67 | 1010.1 |
| 20260506040622 | 72 | 127 | 5.0 | 10.0 | 0.00 | 0.00 | 0.00 | 67 | 1010.0 |
| 20260506040314 | 72 | 178 | 5.0 | 10.0 | 0.00 | 0.00 | 0.00 | 67 | 1010.0 |
| 20260506040222 | 72 | 182 | 6.0 | 10.0 | 0.00 | 0.00 | 0.00 | 67 | 1010.0 |
| 20260506040112 | 72 | 191 | 6.0 | 10.0 | 0.00 | 0.00 | 0.00 | 67 | 1010.0 |
| 20260506040039 | 72 | 178 | 5.0 | 9.0 | 0.00 | 0.00 | 0.00 | 67 | 1010.1 |
| 20260506035925 | 72 | 192 | 5.0 | 9.0 | 0.00 | 0.00 | 0.00 | 67 | 1010.1 |
| 20260506035813 | 72 | 171 | 5.0 | 10.0 | 0.00 | 0.00 | 0.00 | 67 | 1010.1 |
| 20260506035722 | 72 | 142 | 5.0 | 10.0 | 0.00 | 0.00 | 0.00 | 67 | 1010.1 |
| 20260506035614 | 72 | 183 | 5.0 | 10.0 | 0.00 | 0.00 | 0.00 | 67 | 1010.1 |
| 20260506035521 | 72 | 165 | 4.0 | 10.0 | 0.00 | 0.00 | 0.00 | 67 | 1010.1 |
| 20260506035429 | 72 | 161 | 4.0 | 10.0 | 0.00 | 0.00 | 0.00 | 67 | 1010.1 |
| 20260506035316 | 72 | 140 | 5.0 | 10.0 | 0.00 | 0.00 | 0.00 | 67 | 1010.1 |
| 20260506035223 | 72 | 182 | 6.0 | 10.0 | 0.00 | 0.00 | 0.00 | 67 | 1010.1 |
| 20260506035131 | 72 | 184 | 5.0 | 10.0 | 0.00 | 0.00 | 0.00 | 67 | 1010.0 |
| 20260506035106 | 72 | 183 | 4.0 | 12.0 | 0.00 | 0.00 | 0.00 | 67 | 1010.0 |
| 20260506034818 | 72 | 184 | 5.0 | 12.0 | 0.00 | 0.00 | 0.00 | 67 | 1010.0 |
| 20260506034726 | 72 | 194 | 6.0 | 12.0 | 0.00 | 0.00 | 0.00 | 67 | 1010.0 |
| 20260506034614 | 72 | 189 | 6.0 | 12.0 | 0.00 | 0.00 | 0.00 | 67 | 1010.0 |
| 20260506034542 | 72 | 174 | 6.0 | 12.0 | 0.00 | 0.00 | 0.00 | 67 | 1010.1 |
| 20260506034411 | 72 | 141 | 5.0 | 12.0 | 0.00 | 0.00 | 0.00 | 67 | 1010.1 |
| 20260506034319 | 72 | 221 | 5.0 | 12.0 | 0.00 | 0.00 | 0.00 | 67 | 1010.1 |
| 20260506034227 | 72 | 200 | 6.0 | 12.0 | 0.00 | 0.00 | 0.00 | 67 | 1010.1 |
| 20260506034114 | 72 | 196 | 7.0 | 12.0 | 0.00 | 0.00 | 0.00 | 67 | 1010.1 |
| 20260506034021 | 72 | 183 | 6.0 | 12.0 | 0.00 | 0.00 | 0.00 | 67 | 1010.1 |
| 20260506033912 | 72 | 184 | 4.0 | 11.0 | 0.00 | 0.00 | 0.00 | 67 | 1010.1 |
| 20260506033820 | 72 | 189 | 4.0 | 11.0 | 0.00 | 0.00 | 0.00 | 67 | 1010.0 |
| 20260506033746 | 72 | 185 | 4.0 | 11.0 | 0.00 | 0.00 | 0.00 | 66 | 1010.0 |
| 20260506033613 | 72 | 207 | 6.0 | 11.0 | 0.00 | 0.00 | 0.00 | 67 | 1010.1 |
| 20260506033546 | 72 | 190 | 6.0 | 11.0 | 0.00 | 0.00 | 0.00 | 67 | 1010.1 |
| 20260506033323 | 72 | 186 | 7.0 | 11.0 | 0.00 | 0.00 | 0.00 | 66 | 1010.1 |
| 20260506033211 | 72 | 189 | 6.0 | 12.0 | 0.00 | 0.00 | 0.00 | 66 | 1010.0 |
| 20260506033119 | 72 | 197 | 7.0 | 12.0 | 0.00 | 0.00 | 0.00 | 66 | 1010.0 |
| 20260506033027 | 72 | 202 | 7.0 | 12.0 | 0.00 | 0.00 | 0.00 | 66 | 1010.0 |
| 20260506032915 | 72 | 157 | 6.0 | 12.0 | 0.00 | 0.00 | 0.00 | 66 | 1009.9 |
| 20260506032843 | 72 | 171 | 6.0 | 12.0 | 0.00 | 0.00 | 0.00 | 66 | 1009.9 |
| 20260506032713 | 72 | 162 | 7.0 | 12.0 | 0.00 | 0.00 | 0.00 | 66 | 1009.9 |
| 20260506032621 | 72 | 134 | 7.0 | 12.0 | 0.00 | 0.00 | 0.00 | 66 | 1009.9 |
| 20260506032529 | 72 | 183 | 7.0 | 12.0 | 0.00 | 0.00 | 0.00 | 66 | 1010.1 |
| 20260506032416 | 72 | 212 | 7.0 | 12.0 | 0.00 | 0.00 | 0.00 | 66 | 1010.1 |
| 20260506032323 | 72 | 202 | 7.0 | 12.0 | 0.00 | 0.00 | 0.00 | 66 | 1010.1 |
| 20260506032216 | 72 | 172 | 6.0 | 12.0 | 0.00 | 0.00 | 0.00 | 66 | 1010.2 |
| 20260506032121 | 72 | 184 | 6.0 | 12.0 | 0.00 | 0.00 | 0.00 | 66 | 1010.2 |
| 20260506032051 | 72 | 188 | 7.0 | 12.0 | 0.00 | 0.00 | 0.00 | 66 | 1010.1 |
| 20260506031844 | 72 | 182 | 7.0 | 12.0 | 0.00 | 0.00 | 0.00 | 66 | 1010.1 |
| 20260506031710 | 72 | 169 | 7.0 | 12.0 | 0.00 | 0.00 | 0.00 | 66 | 1010.1 |
| 20260506031618 | 72 | 195 | 8.0 | 12.0 | 0.00 | 0.00 | 0.00 | 66 | 1010.1 |
| 20260506031530 | 72 | 190 | 8.0 | 12.0 | 0.00 | 0.00 | 0.00 | 66 | 1010.1 |
| 20260506031416 | 72 | 190 | 6.0 | 14.0 | 0.00 | 0.00 | 0.00 | 66 | 1010.0 |
| 20260506031324 | 72 | 131 | 5.0 | 14.0 | 0.00 | 0.00 | 0.00 | 67 | 1010.0 |
| 20260506031212 | 72 | 215 | 6.0 | 14.0 | 0.00 | 0.00 | 0.00 | 67 | 1010.0 |
| 20260506031118 | 72 | 184 | 7.0 | 14.0 | 0.00 | 0.00 | 0.00 | 66 | 1010.0 |
| 20260506031011 | 72 | 169 | 7.0 | 11.0 | 0.00 | 0.00 | 0.00 | 66 | 1009.9 |
| 20260506030938 | 72 | 196 | 6.0 | 11.0 | 0.00 | 0.00 | 0.00 | 66 | 1010.0 |
| 20260506030824 | 72 | 167 | 7.0 | 11.0 | 0.00 | 0.00 | 0.00 | 66 | 1010.0 |
| 20260506030713 | 72 | 173 | 6.0 | 11.0 | 0.00 | 0.00 | 0.00 | 66 | 1010.0 |
| 20260506030641 | 72 | 192 | 6.0 | 11.0 | 0.00 | 0.00 | 0.00 | 66 | 1010.0 |
| 20260506030615 | 72 | 180 | 6.0 | 11.0 | 0.00 | 0.00 | 0.00 | 66 | 1009.9 |
| 20260506030349 | 72 | 170 | 6.0 | 11.0 | 0.00 | 0.00 | 0.00 | 66 | 1010.0 |
| 20260506030216 | 72 | 211 | 6.0 | 11.0 | 0.00 | 0.00 | 0.00 | 66 | 1010.1 |
| 20260506030122 | 72 | 204 | 7.0 | 11.0 | 0.00 | 0.00 | 0.00 | 66 | 1010.1 |
| 20260506030010 | 72 | 184 | 6.0 | 10.0 | 0.00 | 0.00 | 0.00 | 66 | 1010.1 |
| 20260506025917 | 72 | 179 | 6.0 | 10.0 | 0.00 | 0.00 | 0.00 | 66 | 1010.2 |
| 20260506025844 | 72 | 194 | 6.0 | 10.0 | 0.00 | 0.00 | 0.00 | 66 | 1010.2 |
| 20260506025714 | 72 | 171 | 7.0 | 10.0 | 0.00 | 0.00 | 0.00 | 66 | 1010.1 |
| 20260506025622 | 72 | 188 | 7.0 | 10.0 | 0.00 | 0.00 | 0.00 | 66 | 1010.1 |
| 20260506025530 | 72 | 175 | 6.0 | 10.0 | 0.00 | 0.00 | 0.00 | 66 | 1010.1 |
| 20260506025438 | 72 | 219 | 4.0 | 10.0 | 0.00 | 0.00 | 0.00 | 66 | 1010.1 |
| 20260506025346 | 72 | 182 | 6.0 | 10.0 | 0.00 | 0.00 | 0.00 | 66 | 1010.1 |
| 20260506025212 | 72 | 169 | 6.0 | 10.0 | 0.00 | 0.00 | 0.00 | 66 | 1010.1 |
| 20260506025125 | 72 | 190 | 7.0 | 10.0 | 0.00 | 0.00 | 0.00 | 66 | 1010.1 |
| 20260506025055 | 72 | 188 | 7.0 | 10.0 | 0.00 | 0.00 | 0.00 | 66 | 1010.0 |
| 20260506024829 | 72 | 187 | 7.0 | 10.0 | 0.00 | 0.00 | 0.00 | 66 | 1010.1 |
| 20260506024718 | 72 | 170 | 5.0 | 10.0 | 0.00 | 0.00 | 0.00 | 67 | 1010.0 |
| 20260506024610 | 72 | 151 | 4.0 | 10.0 | 0.00 | 0.00 | 0.00 | 66 | 1009.9 |
| 20260506024517 | 72 | 209 | 4.0 | 10.0 | 0.00 | 0.00 | 0.00 | 67 | 1009.9 |
| 20260506024424 | 72 | 188 | 3.0 | 10.0 | 0.00 | 0.00 | 0.00 | 66 | 1009.9 |
| 20260506024312 | 72 | 199 | 4.0 | 10.0 | 0.00 | 0.00 | 0.00 | 66 | 1009.7 |
| 20260506024240 | 72 | 130 | 4.0 | 10.0 | 0.00 | 0.00 | 0.00 | 66 | 1009.8 |
| 20260506024126 | 72 | 165 | 5.0 | 10.0 | 0.00 | 0.00 | 0.00 | 66 | 1009.8 |
| 20260506024014 | 72 | 232 | 6.0 | 11.0 | 0.00 | 0.00 | 0.00 | 66 | 1009.8 |
| 20260506023924 | 72 | 180 | 7.0 | 10.0 | 0.00 | 0.00 | 0.00 | 66 | 1009.8 |
| 20260506023812 | 72 | 178 | 6.0 | 10.0 | 0.00 | 0.00 | 0.00 | 66 | 1009.7 |
| 20260506023720 | 72 | 225 | 5.0 | 10.0 | 0.00 | 0.00 | 0.00 | 67 | 1009.7 |
| 20260506023627 | 72 | 139 | 4.0 | 10.0 | 0.00 | 0.00 | 0.00 | 66 | 1009.7 |
| 20260506023602 | 72 | 141 | 4.0 | 10.0 | 0.00 | 0.00 | 0.00 | 67 | 1009.7 |
| 20260506023315 | 72 | 189 | 4.0 | 10.0 | 0.00 | 0.00 | 0.00 | 67 | 1009.7 |
| 20260506023222 | 72 | 178 | 5.0 | 13.0 | 0.00 | 0.00 | 0.00 | 67 | 1009.7 |
| 20260506023130 | 72 | 146 | 6.0 | 13.0 | 0.00 | 0.00 | 0.00 | 66 | 1009.8 |
| 20260506023017 | 72 | 186 | 7.0 | 13.0 | 0.00 | 0.00 | 0.00 | 66 | 1009.9 |
| 20260506022925 | 72 | 169 | 7.0 | 13.0 | 0.00 | 0.00 | 0.00 | 67 | 1009.9 |
| 20260506022817 | 72 | 196 | 6.0 | 13.0 | 0.00 | 0.00 | 0.00 | 67 | 1009.9 |
| 20260506022725 | 72 | 163 | 6.0 | 13.0 | 0.00 | 0.00 | 0.00 | 67 | 1009.9 |
| 20260506022613 | 72 | 154 | 6.0 | 13.0 | 0.00 | 0.00 | 0.00 | 67 | 1009.9 |
| 20260506022521 | 72 | 179 | 8.0 | 13.0 | 0.00 | 0.00 | 0.00 | 67 | 1009.9 |
| 20260506022427 | 72 | 166 | 9.0 | 13.0 | 0.00 | 0.00 | 0.00 | 67 | 1010.0 |
| 20260506022319 | 72 | 201 | 8.0 | 13.0 | 0.00 | 0.00 | 0.00 | 67 | 1009.9 |
| 20260506022226 | 72 | 190 | 6.0 | 13.0 | 0.00 | 0.00 | 0.00 | 67 | 1009.9 |
| 20260506022134 | 72 | 173 | 7.0 | 13.0 | 0.00 | 0.00 | 0.00 | 67 | 1009.7 |
| 20260506022103 | 72 | 208 | 7.0 | 13.0 | 0.00 | 0.00 | 0.00 | 67 | 1009.8 |
| 20260506021817 | 72 | 191 | 7.0 | 13.0 | 0.00 | 0.00 | 0.00 | 67 | 1009.7 |
| 20260506021729 | 72 | 179 | 7.0 | 13.0 | 0.00 | 0.00 | 0.00 | 67 | 1009.7 |
| 20260506021616 | 72 | 202 | 8.0 | 13.0 | 0.00 | 0.00 | 0.00 | 67 | 1009.7 |
| 20260506021523 | 72 | 194 | 8.0 | 12.0 | 0.00 | 0.00 | 0.00 | 67 | 1009.7 |
| 20260506021429 | 72 | 187 | 7.0 | 10.0 | 0.00 | 0.00 | 0.00 | 67 | 1009.7 |
| 20260506021317 | 71 | 196 | 7.0 | 11.0 | 0.00 | 0.00 | 0.00 | 67 | 1009.7 |
| 20260506021225 | 72 | 178 | 6.0 | 10.0 | 0.00 | 0.00 | 0.00 | 67 | 1009.7 |
| 20260506021116 | 72 | 175 | 5.0 | 10.0 | 0.00 | 0.00 | 0.00 | 67 | 1009.7 |
| 20260506021025 | 72 | 187 | 5.0 | 10.0 | 0.00 | 0.00 | 0.00 | 67 | 1009.7 |
| 20260506020931 | 71 | 159 | 6.0 | 10.0 | 0.00 | 0.00 | 0.00 | 67 | 1009.6 |
| 20260506020817 | 71 | 187 | 7.0 | 10.0 | 0.00 | 0.00 | 0.00 | 67 | 1009.5 |
| 20260506020723 | 71 | 184 | 7.0 | 10.0 | 0.00 | 0.00 | 0.00 | 67 | 1009.5 |
| 20260506020615 | 71 | 168 | 5.0 | 10.0 | 0.00 | 0.00 | 0.00 | 67 | 1009.3 |
| 20260506020546 | 72 | 202 | 6.0 | 10.0 | 0.00 | 0.00 | 0.00 | 67 | 1009.3 |
| 20260506020318 | 72 | 213 | 6.0 | 10.0 | 0.00 | 0.00 | 0.00 | 67 | 1009.0 |
| 20260506020225 | 72 | 151 | 5.0 | 10.0 | 0.00 | 0.00 | 0.00 | 67 | 1009.0 |
| 20260506020111 | 72 | 165 | 6.0 | 10.0 | 0.00 | 0.00 | 0.00 | 67 | 1008.9 |
| 20260506020022 | 72 | 132 | 6.0 | 10.0 | 0.00 | 0.00 | 0.00 | 67 | 1008.9 |
| 20260506015929 | 72 | 132 | 6.0 | 10.0 | 0.00 | 0.00 | 0.00 | 67 | 1008.9 |
| 20260506015837 | 72 | 140 | 5.0 | 10.0 | 0.00 | 0.00 | 0.00 | 67 | 1009.0 |
| 20260506015724 | 72 | 178 | 6.0 | 10.0 | 0.00 | 0.00 | 0.00 | 67 | 1009.0 |
| 20260506015612 | 72 | 215 | 7.0 | 10.0 | 0.00 | 0.00 | 0.00 | 67 | 1009.2 |
| 20260506015520 | 72 | 163 | 6.0 | 10.0 | 0.00 | 0.00 | 0.00 | 66 | 1009.2 |
| 20260506015411 | 72 | 211 | 5.0 | 8.0 | 0.00 | 0.00 | 0.00 | 66 | 1009.4 |
| 20260506015319 | 72 | 160 | 5.0 | 13.0 | 0.00 | 0.00 | 0.00 | 66 | 1009.3 |
| 20260506015226 | 72 | 159 | 5.0 | 14.0 | 0.00 | 0.00 | 0.00 | 66 | 1009.3 |
| 20260506015134 | 72 | 151 | 5.0 | 14.0 | 0.00 | 0.00 | 0.00 | 66 | 1009.3 |
| 20260506015048 | 72 | 192 | 4.0 | 14.0 | 0.00 | 0.00 | 0.00 | 66 | 1009.3 |
| 20260506014822 | 72 | 142 | 5.0 | 14.0 | 0.00 | 0.00 | 0.00 | 66 | 1009.3 |
| 20260506014729 | 72 | 172 | 6.0 | 14.0 | 0.00 | 0.00 | 0.00 | 66 | 1009.4 |
| 20260506014617 | 72 | 148 | 8.0 | 14.0 | 0.00 | 0.00 | 0.00 | 66 | 1009.5 |
| 20260506014524 | 72 | 185 | 8.0 | 15.0 | 0.00 | 0.00 | 0.00 | 66 | 1009.5 |
| 20260506014412 | 72 | 179 | 7.0 | 11.0 | 0.00 | 0.00 | 0.00 | 66 | 1009.6 |
| 20260506014322 | 72 | 159 | 7.0 | 15.0 | 0.00 | 0.00 | 0.00 | 66 | 1009.6 |
| 20260506014229 | 72 | 156 | 6.0 | 15.0 | 0.00 | 0.00 | 0.00 | 66 | 1009.7 |
| 20260506014117 | 72 | 155 | 4.0 | 15.0 | 0.00 | 0.00 | 0.00 | 66 | 1009.8 |
| 20260506014026 | 72 | 198 | 5.0 | 15.0 | 0.00 | 0.00 | 0.00 | 66 | 1009.8 |
| 20260506013912 | 72 | 173 | 6.0 | 15.0 | 0.00 | 0.00 | 0.00 | 66 | 1009.8 |
| 20260506013825 | 72 | 157 | 7.0 | 15.0 | 0.00 | 0.00 | 0.00 | 66 | 1009.8 |
| 20260506013713 | 72 | 161 | 8.0 | 15.0 | 0.00 | 0.00 | 0.00 | 66 | 1009.8 |
| 20260506013619 | 72 | 171 | 6.0 | 15.0 | 0.00 | 0.00 | 0.00 | 66 | 1009.8 |
| 20260506013547 | 72 | 167 | 7.0 | 11.0 | 0.00 | 0.00 | 0.00 | 66 | 1009.8 |
| 20260506013321 | 72 | 227 | 5.0 | 10.0 | 0.00 | 0.00 | 0.00 | 66 | 1009.8 |
| 20260506013232 | 72 | 181 | 5.0 | 10.0 | 0.00 | 0.00 | 0.00 | 66 | 1009.8 |
| 20260506013139 | 72 | 159 | 6.0 | 10.0 | 0.00 | 0.00 | 0.00 | 66 | 1009.7 |
| 20260506013025 | 72 | 188 | 6.0 | 10.0 | 0.00 | 0.00 | 0.00 | 66 | 1009.7 |
| 20260506012912 | 72 | 213 | 5.0 | 10.0 | 0.00 | 0.00 | 0.00 | 66 | 1009.6 |
| 20260506012820 | 72 | 168 | 5.0 | 10.0 | 0.00 | 0.00 | 0.00 | 66 | 1009.6 |
| 20260506012748 | 72 | 148 | 6.0 | 10.0 | 0.00 | 0.00 | 0.00 | 66 | 1009.6 |
| 20260506012619 | 72 | 184 | 8.0 | 10.0 | 0.00 | 0.00 | 0.00 | 66 | 1009.7 |
| 20260506012546 | 72 | 205 | 6.0 | 10.0 | 0.00 | 0.00 | 0.00 | 66 | 1009.7 |
| 20260506012431 | 72 | 187 | 4.0 | 8.0 | 0.00 | 0.00 | 0.00 | 66 | 1009.7 |
| 20260506012318 | 72 | 192 | 3.0 | 8.0 | 0.00 | 0.00 | 0.00 | 66 | 1009.6 |
| 20260506012225 | 72 | 161 | 3.0 | 8.0 | 0.00 | 0.00 | 0.00 | 66 | 1009.6 |
| 20260506012132 | 72 | 207 | 3.0 | 8.0 | 0.00 | 0.00 | 0.00 | 66 | 1009.6 |
| 20260506012108 | 72 | 178 | 4.0 | 8.0 | 0.00 | 0.00 | 0.00 | 66 | 1009.6 |
| 20260506011820 | 72 | 171 | 5.0 | 8.0 | 0.00 | 0.00 | 0.00 | 66 | 1009.6 |
| 20260506011728 | 72 | 168 | 4.0 | 8.0 | 0.00 | 0.00 | 0.00 | 66 | 1009.6 |
| 20260506011615 | 72 | 190 | 5.0 | 12.0 | 0.00 | 0.00 | 0.00 | 66 | 1009.5 |
| 20260506011524 | 72 | 128 | 5.0 | 12.0 | 0.00 | 0.00 | 0.00 | 65 | 1009.5 |
| 20260506011415 | 72 | 160 | 5.0 | 12.0 | 0.00 | 0.00 | 0.00 | 66 | 1009.5 |
| 20260506011323 | 72 | 151 | 4.0 | 12.0 | 0.00 | 0.00 | 0.00 | 65 | 1009.5 |
| 20260506011230 | 72 | 206 | 4.0 | 12.0 | 0.00 | 0.00 | 0.00 | 65 | 1009.5 |
| 20260506011116 | 72 | 143 | 6.0 | 12.0 | 0.00 | 0.00 | 0.00 | 66 | 1009.4 |
| 20260506011045 | 72 | 175 | 7.0 | 12.0 | 0.00 | 0.00 | 0.00 | 65 | 1009.4 |
| 20260506010910 | 72 | 153 | 8.0 | 12.0 | 0.00 | 0.00 | 0.00 | 65 | 1009.5 |
| 20260506010821 | 72 | 118 | 7.0 | 11.0 | 0.00 | 0.00 | 0.00 | 65 | 1009.5 |
| 20260506010727 | 72 | 182 | 7.0 | 11.0 | 0.00 | 0.00 | 0.00 | 65 | 1009.4 |
| 20260506010634 | 72 | 164 | 6.0 | 11.0 | 0.00 | 0.00 | 0.00 | 65 | 1009.5 |
| 20260506010604 | 72 | 142 | 6.0 | 11.0 | 0.00 | 0.00 | 0.00 | 65 | 1009.5 |
| 20260506010317 | 72 | 132 | 6.0 | 14.0 | 0.00 | 0.00 | 0.00 | 65 | 1009.4 |
| 20260506010228 | 72 | 160 | 6.0 | 14.0 | 0.00 | 0.00 | 0.00 | 65 | 1009.4 |
| 20260506010115 | 72 | 144 | 6.0 | 14.0 | 0.00 | 0.00 | 0.00 | 65 | 1009.4 |
| 20260506010023 | 72 | 142 | 5.0 | 14.0 | 0.00 | 0.00 | 0.00 | 65 | 1009.4 |
| 20260506005912 | 72 | 146 | 5.0 | 14.0 | 0.00 | 0.00 | 0.00 | 65 | 1009.4 |
| 20260506005819 | 72 | 175 | 5.0 | 14.0 | 0.00 | 0.00 | 0.00 | 65 | 1009.4 |
| 20260506005711 | 72 | 152 | 7.0 | 14.0 | 0.00 | 0.00 | 0.00 | 64 | 1009.4 |
| 20260506005618 | 72 | 187 | 7.0 | 14.0 | 0.00 | 0.00 | 0.00 | 65 | 1009.5 |
| 20260506005526 | 72 | 165 | 6.0 | 13.0 | 0.00 | 0.00 | 0.00 | 65 | 1009.5 |
| 20260506005412 | 72 | 193 | 6.0 | 9.0 | 0.00 | 0.00 | 0.00 | 64 | 1009.5 |
| 20260506005319 | 72 | 185 | 6.0 | 10.0 | 0.00 | 0.00 | 0.00 | 64 | 1009.4 |
| 20260506005211 | 72 | 164 | 5.0 | 11.0 | 0.00 | 0.00 | 0.00 | 64 | 1009.4 |
| 20260506005118 | 72 | 196 | 6.0 | 11.0 | 0.00 | 0.00 | 0.00 | 64 | 1009.4 |
| 20260506005047 | 72 | 194 | 5.0 | 12.0 | 0.00 | 0.00 | 0.00 | 65 | 1009.4 |
| 20260506004841 | 72 | 196 | 5.0 | 12.0 | 0.00 | 0.00 | 0.00 | 64 | 1009.5 |
| 20260506004726 | 72 | 176 | 5.0 | 12.0 | 0.00 | 0.00 | 0.00 | 65 | 1009.5 |
| 20260506004633 | 72 | 198 | 6.0 | 12.0 | 0.00 | 0.00 | 0.00 | 64 | 1009.5 |
| 20260506004523 | 72 | 197 | 7.0 | 12.0 | 0.00 | 0.00 | 0.00 | 64 | 1009.5 |
| 20260506004412 | 72 | 155 | 7.0 | 12.0 | 0.00 | 0.00 | 0.00 | 64 | 1009.5 |
| 20260506004318 | 72 | 210 | 6.0 | 12.0 | 0.00 | 0.00 | 0.00 | 64 | 1009.5 |
| 20260506004225 | 72 | 184 | 7.0 | 12.0 | 0.00 | 0.00 | 0.00 | 64 | 1009.5 |
| 20260506004112 | 72 | 175 | 6.0 | 12.0 | 0.00 | 0.00 | 0.00 | 64 | 1009.6 |
| 20260506004023 | 72 | 189 | 5.0 | 10.0 | 0.00 | 0.00 | 0.00 | 64 | 1009.6 |
| 20260506003951 | 72 | 193 | 6.0 | 10.0 | 0.00 | 0.00 | 0.00 | 64 | 1009.6 |
| 20260506003816 | 72 | 169 | 7.0 | 10.0 | 0.00 | 0.00 | 0.00 | 64 | 1009.6 |
| 20260506003723 | 72 | 205 | 6.0 | 10.0 | 0.00 | 0.00 | 0.00 | 64 | 1009.6 |
| 20260506003610 | 72 | 182 | 5.0 | 11.0 | 0.00 | 0.00 | 0.00 | 64 | 1009.6 |
| 20260506003545 | 72 | 171 | 5.0 | 11.0 | 0.00 | 0.00 | 0.00 | 64 | 1009.6 |
| 20260506003317 | 72 | 182 | 4.0 | 11.0 | 0.00 | 0.00 | 0.00 | 64 | 1009.6 |
| 20260506003225 | 72 | 188 | 5.0 | 11.0 | 0.00 | 0.00 | 0.00 | 64 | 1009.6 |
| 20260506003112 | 72 | 186 | 5.0 | 11.0 | 0.00 | 0.00 | 0.00 | 63 | 1009.5 |
| 20260506003021 | 72 | 176 | 5.0 | 11.0 | 0.00 | 0.00 | 0.00 | 64 | 1009.5 |
| 20260506002948 | 72 | 150 | 5.0 | 11.0 | 0.00 | 0.00 | 0.00 | 63 | 1009.5 |
| 20260506002819 | 72 | 190 | 6.0 | 11.0 | 0.00 | 0.00 | 0.00 | 64 | 1009.5 |
| 20260506002727 | 72 | 198 | 6.0 | 14.0 | 0.00 | 0.00 | 0.00 | 63 | 1009.5 |
| 20260506002613 | 72 | 144 | 4.0 | 14.0 | 0.00 | 0.00 | 0.00 | 64 | 1009.3 |
| 20260506002541 | 72 | 130 | 4.0 | 14.0 | 0.00 | 0.00 | 0.00 | 63 | 1009.1 |
| 20260506002448 | 72 | 143 | 5.0 | 14.0 | 0.00 | 0.00 | 0.00 | 63 | 1009.1 |
| 20260506002314 | 72 | 139 | 6.0 | 14.0 | 0.00 | 0.00 | 0.00 | 63 | 1009.3 |
| 20260506002242 | 72 | 175 | 6.0 | 14.0 | 0.00 | 0.00 | 0.00 | 63 | 1009.3 |
| 20260506002133 | 72 | 151 | 7.0 | 14.0 | 0.00 | 0.00 | 0.00 | 63 | 1009.4 |
| 20260506002102 | 73 | 147 | 8.0 | 14.0 | 0.00 | 0.00 | 0.00 | 63 | 1009.5 |
| 20260506001815 | 72 | 194 | 8.0 | 12.0 | 0.00 | 0.00 | 0.00 | 63 | 1009.3 |
| 20260506001723 | 72 | 185 | 7.0 | 11.0 | 0.00 | 0.00 | 0.00 | 63 | 1009.3 |
| 20260506001615 | 72 | 158 | 6.0 | 11.0 | 0.00 | 0.00 | 0.00 | 63 | 1009.2 |
| 20260506001521 | 73 | 168 | 6.0 | 11.0 | 0.00 | 0.00 | 0.00 | 63 | 1009.2 |
| 20260506001429 | 73 | 169 | 6.0 | 13.0 | 0.00 | 0.00 | 0.00 | 63 | 1009.3 |
| 20260506001336 | 73 | 199 | 6.0 | 13.0 | 0.00 | 0.00 | 0.00 | 63 | 1009.2 |
| 20260506001223 | 73 | 118 | 5.0 | 13.0 | 0.00 | 0.00 | 0.00 | 63 | 1009.2 |
| 20260506001150 | 73 | 209 | 6.0 | 13.0 | 0.00 | 0.00 | 0.00 | 63 | 1009.3 |
| 20260506001015 | 73 | 184 | 7.0 | 13.0 | 0.00 | 0.00 | 0.00 | 63 | 1009.5 |
| 20260506000928 | 73 | 140 | 7.0 | 13.0 | 0.00 | 0.00 | 0.00 | 63 | 1009.5 |
| 20260506000815 | 73 | 175 | 7.0 | 13.0 | 0.00 | 0.00 | 0.00 | 63 | 1009.4 |
| 20260506000723 | 73 | 183 | 7.0 | 13.0 | 0.00 | 0.00 | 0.00 | 62 | 1009.4 |
| 20260506000651 | 73 | 199 | 7.0 | 13.0 | 0.00 | 0.00 | 0.00 | 62 | 1009.4 |
| 20260506000620 | 73 | 201 | 7.0 | 13.0 | 0.00 | 0.00 | 0.00 | 62 | 1009.3 |
| 20260506000336 | 73 | 160 | 8.0 | 13.0 | 0.00 | 0.00 | 0.00 | 62 | 1009.2 |
| 20260506000222 | 73 | 179 | 9.0 | 15.0 | 0.00 | 0.00 | 0.00 | 62 | 1009.2 |
| 20260506000129 | 73 | 155 | 9.0 | 16.0 | 0.00 | 0.00 | 0.00 | 62 | 1009.3 |
| 20260506000017 | 73 | 204 | 7.0 | 16.0 | 0.00 | 0.00 | 0.00 | 62 | 1009.4 |
| 20260505235924 | 73 | 151 | 5.0 | 16.0 | 0.00 | 0.00 | 0.00 | 63 | 1009.4 |
| 20260505235816 | 73 | 150 | 6.0 | 16.0 | 0.00 | 0.00 | 0.00 | 62 | 1009.3 |
| 20260505235724 | 73 | 191 | 6.0 | 16.0 | 0.00 | 0.00 | 0.00 | 62 | 1009.3 |
| 20260505235613 | 73 | 129 | 7.0 | 16.0 | 0.00 | 0.00 | 0.00 | 62 | 1009.3 |
| 20260505235520 | 73 | 151 | 9.0 | 16.0 | 0.00 | 0.00 | 0.00 | 62 | 1009.3 |
| 20260505235427 | 73 | 154 | 10.0 | 16.0 | 0.00 | 0.00 | 0.00 | 62 | 1009.4 |
| 20260505235313 | 73 | 152 | 9.0 | 16.0 | 0.00 | 0.00 | 0.00 | 62 | 1009.3 |
| 20260505235223 | 73 | 165 | 9.0 | 16.0 | 0.00 | 0.00 | 0.00 | 62 | 1009.3 |
| 20260505235131 | 73 | 130 | 8.0 | 14.0 | 0.00 | 0.00 | 0.00 | 62 | 1009.3 |
| 20260505235101 | 73 | 155 | 6.0 | 14.0 | 0.00 | 0.00 | 0.00 | 62 | 1009.4 |
| 20260505234815 | 73 | 151 | 7.0 | 14.0 | 0.00 | 0.00 | 0.00 | 62 | 1009.4 |
| 20260505234727 | 73 | 170 | 7.0 | 14.0 | 0.00 | 0.00 | 0.00 | 62 | 1009.4 |
| 20260505234614 | 73 | 139 | 6.0 | 14.0 | 0.00 | 0.00 | 0.00 | 62 | 1009.5 |
| 20260505234522 | 73 | 142 | 5.0 | 14.0 | 0.00 | 0.00 | 0.00 | 62 | 1009.5 |
| 20260505234429 | 73 | 115 | 5.0 | 16.0 | 0.00 | 0.00 | 0.00 | 62 | 1009.7 |
| 20260505234317 | 73 | 188 | 5.0 | 17.0 | 0.00 | 0.00 | 0.00 | 62 | 1009.6 |
| 20260505234224 | 73 | 194 | 6.0 | 17.0 | 0.00 | 0.00 | 0.00 | 62 | 1009.6 |
| 20260505234115 | 73 | 128 | 6.0 | 17.0 | 0.00 | 0.00 | 0.00 | 62 | 1009.7 |
| 20260505234022 | 73 | 207 | 6.0 | 17.0 | 0.00 | 0.00 | 0.00 | 62 | 1009.7 |
| 20260505233930 | 73 | 211 | 8.0 | 17.0 | 0.00 | 0.00 | 0.00 | 61 | 1009.6 |
| 20260505233838 | 73 | 184 | 10.0 | 17.0 | 0.00 | 0.00 | 0.00 | 61 | 1009.7 |
| 20260505233724 | 73 | 167 | 11.0 | 17.0 | 0.00 | 0.00 | 0.00 | 61 | 1009.7 |
| 20260505233616 | 73 | 207 | 12.0 | 17.0 | 0.00 | 0.00 | 0.00 | 61 | 1009.7 |
| 20260505233546 | 73 | 196 | 11.0 | 17.0 | 0.00 | 0.00 | 0.00 | 61 | 1009.7 |
| 20260505233320 | 73 | 182 | 9.0 | 17.0 | 0.00 | 0.00 | 0.00 | 61 | 1009.8 |
| 20260505233248 | 73 | 189 | 9.0 | 17.0 | 0.00 | 0.00 | 0.00 | 61 | 1009.8 |
| 20260505233134 | 73 | 213 | 8.0 | 17.0 | 0.00 | 0.00 | 0.00 | 61 | 1009.9 |
| 20260505233020 | 73 | 210 | 10.0 | 17.0 | 0.00 | 0.00 | 0.00 | 61 | 1009.8 |
| 20260505232911 | 73 | 151 | 12.0 | 17.0 | 0.00 | 0.00 | 0.00 | 61 | 1009.8 |
| 20260505232818 | 73 | 184 | 10.0 | 16.0 | 0.00 | 0.00 | 0.00 | 61 | 1009.8 |
| 20260505232725 | 73 | 217 | 9.0 | 17.0 | 0.00 | 0.00 | 0.00 | 61 | 1009.8 |
| 20260505232614 | 73 | 184 | 7.0 | 15.0 | 0.00 | 0.00 | 0.00 | 61 | 1009.9 |
| 20260505232519 | 73 | 197 | 8.0 | 15.0 | 0.00 | 0.00 | 0.00 | 61 | 1009.9 |
| 20260505232411 | 73 | 184 | 9.0 | 15.0 | 0.00 | 0.00 | 0.00 | 61 | 1010.0 |
| 20260505232317 | 73 | 187 | 9.0 | 16.0 | 0.00 | 0.00 | 0.00 | 61 | 1010.0 |
| 20260505232224 | 73 | 203 | 9.0 | 16.0 | 0.00 | 0.00 | 0.00 | 61 | 1010.0 |
| 20260505232112 | 73 | 86 | 9.0 | 16.0 | 0.00 | 0.00 | 0.00 | 61 | 1010.1 |
| 20260505232047 | 73 | 135 | 8.0 | 16.0 | 0.00 | 0.00 | 0.00 | 61 | 1010.1 |
| 20260505231821 | 73 | 166 | 8.0 | 16.0 | 0.00 | 0.00 | 0.00 | 61 | 1010.1 |
| 20260505231730 | 73 | 171 | 8.0 | 16.0 | 0.00 | 0.00 | 0.00 | 61 | 1010.2 |
| 20260505231616 | 73 | 178 | 9.0 | 16.0 | 0.00 | 0.00 | 0.00 | 60 | 1010.2 |
| 20260505231523 | 73 | 192 | 10.0 | 16.0 | 0.00 | 0.00 | 0.00 | 60 | 1010.2 |
| 20260505231410 | 73 | 190 | 9.0 | 15.0 | 0.00 | 0.00 | 0.00 | 60 | 1010.3 |
| 20260505231322 | 73 | 168 | 9.0 | 14.0 | 0.00 | 0.00 | 0.00 | 60 | 1010.3 |
| 20260505231211 | 73 | 157 | 9.0 | 16.0 | 0.00 | 0.00 | 0.00 | 60 | 1010.4 |
| 20260505231118 | 73 | 214 | 11.0 | 16.0 | 0.00 | 0.00 | 0.00 | 60 | 1010.4 |
| 20260505231045 | 74 | 192 | 11.0 | 18.0 | 0.00 | 0.00 | 0.00 | 60 | 1010.4 |
| 20260505230932 | 74 | 183 | 8.0 | 18.0 | 0.00 | 0.00 | 0.00 | 60 | 1010.4 |
| 20260505230818 | 74 | 198 | 8.0 | 18.0 | 0.00 | 0.00 | 0.00 | 60 | 1010.4 |
| 20260505230710 | 74 | 187 | 9.0 | 21.0 | 0.00 | 0.00 | 0.00 | 60 | 1010.3 |
| 20260505230618 | 74 | 170 | 10.0 | 21.0 | 0.00 | 0.00 | 0.00 | 60 | 1010.4 |
| 20260505230547 | 74 | 168 | 9.0 | 21.0 | 0.00 | 0.00 | 0.00 | 60 | 1010.4 |
| 20260505230320 | 74 | 167 | 9.0 | 21.0 | 0.00 | 0.00 | 0.00 | 60 | 1010.4 |
| 20260505230211 | 74 | 189 | 10.0 | 21.0 | 0.00 | 0.00 | 0.00 | 60 | 1010.3 |
| 20260505230119 | 74 | 163 | 10.0 | 21.0 | 0.00 | 0.00 | 0.00 | 60 | 1010.4 |
| 20260505230046 | 74 | 189 | 11.0 | 21.0 | 0.00 | 0.00 | 0.00 | 60 | 1010.4 |
| 20260505225911 | 74 | 169 | 11.0 | 21.0 | 0.00 | 0.00 | 0.00 | 60 | 1010.2 |
| 20260505225819 | 74 | 173 | 10.0 | 16.0 | 0.00 | 0.00 | 0.00 | 59 | 1010.3 |
| 20260505225724 | 74 | 179 | 10.0 | 16.0 | 0.00 | 0.00 | 0.00 | 59 | 1010.3 |
| 20260505225612 | 74 | 192 | 9.0 | 14.0 | 0.00 | 0.00 | 0.00 | 60 | 1010.2 |
| 20260505225523 | 74 | 178 | 9.0 | 16.0 | 0.00 | 0.00 | 0.00 | 60 | 1010.2 |
| 20260505225411 | 74 | 199 | 9.0 | 16.0 | 0.00 | 0.00 | 0.00 | 60 | 1010.3 |
| 20260505225319 | 74 | 207 | 9.0 | 16.0 | 0.00 | 0.00 | 0.00 | 60 | 1010.3 |
| 20260505225228 | 74 | 197 | 6.0 | 16.0 | 0.00 | 0.00 | 0.00 | 60 | 1010.3 |
| 20260505225135 | 74 | 128 | 6.0 | 16.0 | 0.00 | 0.00 | 0.00 | 60 | 1010.2 |
| 20260505225047 | 74 | 181 | 7.0 | 16.0 | 0.00 | 0.00 | 0.00 | 60 | 1010.2 |
| 20260505224820 | 74 | 170 | 10.0 | 16.0 | 0.00 | 0.00 | 0.00 | 60 | 1010.3 |
| 20260505224728 | 74 | 207 | 11.0 | 17.0 | 0.00 | 0.00 | 0.00 | 60 | 1010.3 |
| 20260505224636 | 74 | 176 | 8.0 | 16.0 | 0.00 | 0.00 | 0.00 | 60 | 1010.3 |
| 20260505224542 | 74 | 182 | 9.0 | 15.0 | 0.00 | 0.00 | 0.00 | 60 | 1010.3 |
| 20260505224410 | 74 | 175 | 9.0 | 16.0 | 0.00 | 0.00 | 0.00 | 60 | 1010.4 |
| 20260505224321 | 74 | 204 | 8.0 | 15.0 | 0.00 | 0.00 | 0.00 | 60 | 1010.4 |
| 20260505224249 | 74 | 169 | 8.0 | 15.0 | 0.00 | 0.00 | 0.00 | 60 | 1010.4 |
| 20260505224115 | 74 | 140 | 8.0 | 15.0 | 0.00 | 0.00 | 0.00 | 60 | 1010.3 |
| 20260505224022 | 73 | 192 | 8.0 | 15.0 | 0.00 | 0.00 | 0.00 | 60 | 1010.3 |
| 20260505223949 | 74 | 188 | 8.0 | 15.0 | 0.00 | 0.00 | 0.00 | 60 | 1010.4 |
| 20260505223815 | 73 | 195 | 7.0 | 15.0 | 0.00 | 0.00 | 0.00 | 60 | 1010.3 |
| 20260505223743 | 73 | 174 | 7.0 | 15.0 | 0.00 | 0.00 | 0.00 | 60 | 1010.3 |
| 20260505223613 | 73 | 173 | 8.0 | 17.0 | 0.00 | 0.00 | 0.00 | 60 | 1010.4 |
| 20260505223544 | 73 | 211 | 8.0 | 17.0 | 0.00 | 0.00 | 0.00 | 60 | 1010.4 |
| 20260505223337 | 73 | 209 | 8.0 | 17.0 | 0.00 | 0.00 | 0.00 | 60 | 1010.6 |
| 20260505223225 | 73 | 169 | 8.0 | 17.0 | 0.00 | 0.00 | 0.00 | 60 | 1010.6 |
| 20260505223117 | 74 | 202 | 8.0 | 17.0 | 0.00 | 0.00 | 0.00 | 60 | 1010.7 |
| 20260505223024 | 73 | 193 | 8.0 | 17.0 | 0.00 | 0.00 | 0.00 | 60 | 1010.7 |
| 20260505222911 | 74 | 179 | 9.0 | 17.0 | 0.00 | 0.00 | 0.00 | 60 | 1010.7 |
| 20260505222817 | 74 | 196 | 8.0 | 17.0 | 0.00 | 0.00 | 0.00 | 60 | 1010.6 |
| 20260505222725 | 74 | 166 | 7.0 | 16.0 | 0.00 | 0.00 | 0.00 | 60 | 1010.6 |
| 20260505222632 | 74 | 186 | 8.0 | 16.0 | 0.00 | 0.00 | 0.00 | 60 | 1010.7 |
| 20260505222523 | 74 | 185 | 8.0 | 16.0 | 0.00 | 0.00 | 0.00 | 60 | 1010.7 |
| 20260505222429 | 74 | 197 | 9.0 | 16.0 | 0.00 | 0.00 | 0.00 | 60 | 1010.7 |
| 20260505222337 | 74 | 196 | 8.0 | 16.0 | 0.00 | 0.00 | 0.00 | 60 | 1010.7 |
| 20260505222223 | 74 | 175 | 6.0 | 16.0 | 0.00 | 0.00 | 0.00 | 60 | 1010.7 |
| 20260505222110 | 74 | 185 | 8.0 | 16.0 | 0.00 | 0.00 | 0.00 | 59 | 1010.7 |
| 20260505222044 | 74 | 201 | 9.0 | 16.0 | 0.00 | 0.00 | 0.00 | 59 | 1010.7 |
| 20260505221818 | 74 | 170 | 8.0 | 16.0 | 0.00 | 0.00 | 0.00 | 60 | 1010.8 |
| 20260505221745 | 74 | 182 | 7.0 | 16.0 | 0.00 | 0.00 | 0.00 | 59 | 1010.8 |
| 20260505221611 | 74 | 194 | 6.0 | 16.0 | 0.00 | 0.00 | 0.00 | 59 | 1010.6 |
| 20260505221519 | 74 | 186 | 8.0 | 16.0 | 0.00 | 0.00 | 0.00 | 59 | 1010.6 |
| 20260505221427 | 74 | 186 | 10.0 | 16.0 | 0.00 | 0.00 | 0.00 | 59 | 1010.6 |
| 20260505221318 | 74 | 211 | 8.0 | 15.0 | 0.00 | 0.00 | 0.00 | 59 | 1010.6 |
| 20260505221225 | 74 | 169 | 6.0 | 16.0 | 0.00 | 0.00 | 0.00 | 59 | 1010.6 |
| 20260505221114 | 74 | 157 | 7.0 | 13.0 | 0.00 | 0.00 | 0.00 | 59 | 1010.6 |
| 20260505221041 | 74 | 202 | 8.0 | 13.0 | 0.00 | 0.00 | 0.00 | 59 | 1010.6 |
| 20260505220926 | 74 | 150 | 7.0 | 13.0 | 0.00 | 0.00 | 0.00 | 59 | 1010.6 |
| 20260505220814 | 74 | 196 | 6.0 | 13.0 | 0.00 | 0.00 | 0.00 | 60 | 1010.6 |
| 20260505220725 | 74 | 115 | 6.0 | 13.0 | 0.00 | 0.00 | 0.00 | 59 | 1010.6 |
| 20260505220612 | 74 | 150 | 8.0 | 13.0 | 0.00 | 0.00 | 0.00 | 59 | 1010.5 |
| 20260505220544 | 74 | 190 | 8.0 | 13.0 | 0.00 | 0.00 | 0.00 | 59 | 1010.5 |
| 20260505220318 | 74 | 207 | 7.0 | 13.0 | 0.00 | 0.00 | 0.00 | 59 | 1010.6 |
| 20260505220230 | 74 | 196 | 6.0 | 12.0 | 0.00 | 0.00 | 0.00 | 59 | 1010.6 |
| 20260505220117 | 74 | 186 | 7.0 | 12.0 | 0.00 | 0.00 | 0.00 | 59 | 1010.6 |
| 20260505220045 | 74 | 203 | 6.0 | 14.0 | 0.00 | 0.00 | 0.00 | 59 | 1010.6 |
| 20260505215910 | 74 | 148 | 5.0 | 14.0 | 0.00 | 0.00 | 0.00 | 59 | 1010.7 |
| 20260505215817 | 74 | 166 | 7.0 | 14.0 | 0.00 | 0.00 | 0.00 | 58 | 1010.7 |
| 20260505215725 | 74 | 188 | 8.0 | 14.0 | 0.00 | 0.00 | 0.00 | 58 | 1010.7 |
| 20260505215637 | 74 | 193 | 9.0 | 14.0 | 0.00 | 0.00 | 0.00 | 58 | 1010.7 |
| 20260505215522 | 74 | 192 | 9.0 | 14.0 | 0.00 | 0.00 | 0.00 | 58 | 1010.7 |
| 20260505215410 | 74 | 169 | 9.0 | 14.0 | 0.00 | 0.00 | 0.00 | 58 | 1010.8 |
| 20260505215338 | 74 | 196 | 9.0 | 14.0 | 0.00 | 0.00 | 0.00 | 58 | 1010.8 |
| 20260505215224 | 74 | 174 | 10.0 | 14.0 | 0.00 | 0.00 | 0.00 | 57 | 1010.8 |
| 20260505215111 | 74 | 198 | 9.0 | 15.0 | 0.00 | 0.00 | 0.00 | 58 | 1010.7 |
| 20260505215046 | 74 | 180 | 7.0 | 17.0 | 0.00 | 0.00 | 0.00 | 58 | 1010.7 |
| 20260505214820 | 74 | 223 | 7.0 | 17.0 | 0.00 | 0.00 | 0.00 | 58 | 1010.8 |
| 20260505214748 | 74 | 173 | 6.0 | 17.0 | 0.00 | 0.00 | 0.00 | 58 | 1010.7 |
| 20260505214614 | 74 | 192 | 5.0 | 17.0 | 0.00 | 0.00 | 0.00 | 57 | 1010.7 |
| 20260505214521 | 74 | 175 | 6.0 | 19.0 | 0.00 | 0.00 | 0.00 | 58 | 1010.7 |
| 20260505214432 | 74 | 169 | 9.0 | 19.0 | 0.00 | 0.00 | 0.00 | 57 | 1010.6 |
| 20260505214317 | 74 | 188 | 10.0 | 19.0 | 0.00 | 0.00 | 0.00 | 57 | 1010.7 |
| 20260505214224 | 74 | 180 | 11.0 | 19.0 | 0.00 | 0.00 | 0.00 | 57 | 1010.7 |
| 20260505214112 | 74 | 172 | 12.0 | 19.0 | 0.00 | 0.00 | 0.00 | 57 | 1010.5 |
| 20260505214020 | 74 | 173 | 11.0 | 19.0 | 0.00 | 0.00 | 0.00 | 57 | 1010.5 |
| 20260505213948 | 74 | 164 | 12.0 | 19.0 | 0.00 | 0.00 | 0.00 | 56 | 1010.5 |
| 20260505213817 | 74 | 169 | 11.0 | 19.0 | 0.00 | 0.00 | 0.00 | 56 | 1010.6 |
| 20260505213724 | 74 | 195 | 10.0 | 19.0 | 0.00 | 0.00 | 0.00 | 56 | 1010.6 |
| 20260505213652 | 74 | 182 | 9.0 | 18.0 | 0.00 | 0.00 | 0.00 | 57 | 1010.5 |
| 20260505213602 | 74 | 170 | 9.0 | 18.0 | 0.00 | 0.00 | 0.00 | 56 | 1010.6 |
| 20260505213315 | 74 | 175 | 9.0 | 22.0 | 0.00 | 0.00 | 0.00 | 56 | 1010.6 |
| 20260505213225 | 74 | 200 | 9.0 | 22.0 | 0.00 | 0.00 | 0.00 | 57 | 1010.6 |
| 20260505213113 | 74 | 211 | 10.0 | 22.0 | 0.00 | 0.00 | 0.00 | 56 | 1010.6 |
| 20260505213019 | 74 | 169 | 11.0 | 22.0 | 0.00 | 0.00 | 0.00 | 56 | 1010.6 |
| 20260505212925 | 74 | 190 | 12.0 | 22.0 | 0.00 | 0.00 | 0.00 | 56 | 1010.6 |
| 20260505212813 | 74 | 186 | 10.0 | 22.0 | 0.00 | 0.00 | 0.00 | 56 | 1010.7 |
| 20260505212721 | 74 | 205 | 11.0 | 22.0 | 0.00 | 0.00 | 0.00 | 56 | 1010.7 |
| 20260505212613 | 74 | 184 | 13.0 | 22.0 | 0.00 | 0.00 | 0.00 | 55 | 1010.7 |
| 20260505212521 | 74 | 201 | 13.0 | 22.0 | 0.00 | 0.00 | 0.00 | 55 | 1010.7 |
| 20260505212427 | 74 | 186 | 12.0 | 21.0 | 0.00 | 0.00 | 0.00 | 56 | 1010.8 |
| 20260505212315 | 74 | 196 | 12.0 | 19.0 | 0.00 | 0.00 | 0.00 | 55 | 1010.6 |
| 20260505212223 | 74 | 207 | 13.0 | 19.0 | 0.00 | 0.00 | 0.00 | 56 | 1010.6 |
| 20260505212114 | 74 | 171 | 12.0 | 21.0 | 0.00 | 0.00 | 0.00 | 56 | 1010.7 |
| 20260505212045 | 74 | 208 | 12.0 | 21.0 | 0.00 | 0.00 | 0.00 | 56 | 1010.7 |
| 20260505211840 | 75 | 205 | 9.0 | 21.0 | 0.00 | 0.00 | 0.00 | 56 | 1010.6 |
| 20260505211725 | 75 | 204 | 8.0 | 21.0 | 0.00 | 0.00 | 0.00 | 56 | 1010.6 |
| 20260505211612 | 75 | 167 | 9.0 | 21.0 | 0.00 | 0.00 | 0.00 | 56 | 1010.7 |
| 20260505211523 | 75 | 192 | 9.0 | 21.0 | 0.00 | 0.00 | 0.00 | 56 | 1010.7 |
| 20260505211411 | 75 | 194 | 13.0 | 21.0 | 0.00 | 0.00 | 0.00 | 55 | 1010.6 |
| 20260505211319 | 75 | 196 | 14.0 | 21.0 | 0.00 | 0.00 | 0.00 | 55 | 1010.6 |
| 20260505211226 | 75 | 183 | 13.0 | 20.0 | 0.00 | 0.00 | 0.00 | 56 | 1010.6 |
| 20260505211115 | 75 | 208 | 11.0 | 19.0 | 0.00 | 0.00 | 0.00 | 56 | 1010.6 |
| 20260505211027 | 75 | 183 | 10.0 | 19.0 | 0.00 | 0.00 | 0.00 | 56 | 1010.6 |
| 20260505210913 | 75 | 202 | 12.0 | 19.0 | 0.00 | 0.00 | 0.00 | 56 | 1010.6 |
| 20260505210820 | 75 | 202 | 12.0 | 19.0 | 0.00 | 0.00 | 0.00 | 56 | 1010.6 |
| 20260505210728 | 75 | 188 | 12.0 | 20.0 | 0.00 | 0.00 | 0.00 | 56 | 1010.6 |
| 20260505210616 | 74 | 182 | 10.0 | 20.0 | 0.00 | 0.00 | 0.00 | 57 | 1010.6 |
| 20260505210551 | 74 | 191 | 10.0 | 20.0 | 0.00 | 0.00 | 0.00 | 57 | 1010.6 |
| 20260505210326 | 74 | 159 | 9.0 | 20.0 | 0.00 | 0.00 | 0.00 | 56 | 1010.5 |
| 20260505210213 | 74 | 191 | 10.0 | 20.0 | 0.00 | 0.00 | 0.00 | 56 | 1010.5 |
| 20260505210120 | 74 | 197 | 11.0 | 20.0 | 0.00 | 0.00 | 0.00 | 55 | 1010.5 |
| 20260505210027 | 74 | 169 | 9.0 | 20.0 | 0.00 | 0.00 | 0.00 | 55 | 1010.6 |
| 20260505205919 | 74 | 174 | 8.0 | 17.0 | 0.00 | 0.00 | 0.00 | 57 | 1010.6 |
| 20260505205825 | 74 | 221 | 8.0 | 17.0 | 0.00 | 0.00 | 0.00 | 56 | 1010.6 |
| 20260505205713 | 74 | 195 | 8.0 | 17.0 | 0.00 | 0.00 | 0.00 | 56 | 1010.5 |
| 20260505205620 | 74 | 208 | 9.0 | 18.0 | 0.00 | 0.00 | 0.00 | 55 | 1010.5 |
| 20260505205527 | 74 | 183 | 11.0 | 18.0 | 0.00 | 0.00 | 0.00 | 55 | 1010.5 |
| 20260505205418 | 74 | 207 | 10.0 | 18.0 | 0.00 | 0.00 | 0.00 | 55 | 1010.5 |
| 20260505205346 | 74 | 173 | 9.0 | 18.0 | 0.00 | 0.00 | 0.00 | 55 | 1010.5 |
| 20260505205212 | 74 | 191 | 8.0 | 18.0 | 0.00 | 0.00 | 0.00 | 55 | 1010.4 |
| 20260505205119 | 74 | 185 | 9.0 | 18.0 | 0.00 | 0.00 | 0.00 | 55 | 1010.4 |
| 20260505205050 | 74 | 184 | 10.0 | 18.0 | 0.00 | 0.00 | 0.00 | 56 | 1010.4 |
| 20260505204829 | 73 | 192 | 10.0 | 18.0 | 0.00 | 0.00 | 0.00 | 56 | 1010.3 |
| 20260505204714 | 73 | 179 | 9.0 | 18.0 | 0.00 | 0.00 | 0.00 | 57 | 1010.2 |
| 20260505204623 | 73 | 173 | 10.0 | 18.0 | 0.00 | 0.00 | 0.00 | 57 | 1010.2 |
| 20260505204510 | 73 | 190 | 9.0 | 18.0 | 0.00 | 0.00 | 0.00 | 57 | 1010.2 |
| 20260505204416 | 73 | 176 | 8.0 | 18.0 | 0.00 | 0.00 | 0.00 | 57 | 1010.3 |
| 20260505204325 | 74 | 180 | 7.0 | 18.0 | 0.00 | 0.00 | 0.00 | 58 | 1010.3 |
| 20260505204218 | 74 | 182 | 7.0 | 18.0 | 0.00 | 0.00 | 0.00 | 57 | 1010.3 |
| 20260505204124 | 74 | 148 | 7.0 | 18.0 | 0.00 | 0.00 | 0.00 | 57 | 1010.3 |
| 20260505204012 | 74 | 121 | 6.0 | 18.0 | 0.00 | 0.00 | 0.00 | 57 | 1010.2 |
| 20260505203920 | 74 | 153 | 7.0 | 18.0 | 0.00 | 0.00 | 0.00 | 57 | 1010.2 |
| 20260505203827 | 74 | 134 | 10.0 | 18.0 | 0.00 | 0.00 | 0.00 | 57 | 1010.2 |
| 20260505203720 | 74 | 143 | 10.0 | 18.0 | 0.00 | 0.00 | 0.00 | 57 | 1010.3 |
| 20260505203627 | 74 | 132 | 9.0 | 18.0 | 0.00 | 0.00 | 0.00 | 59 | 1010.3 |
| 20260505203557 | 74 | 123 | 7.0 | 18.0 | 0.00 | 0.00 | 0.00 | 59 | 1010.2 |
| 20260505203311 | 74 | 189 | 9.0 | 18.0 | 0.00 | 0.00 | 0.00 | 57 | 1010.3 |
| 20260505203239 | 75 | 192 | 9.0 | 18.0 | 0.00 | 0.00 | 0.00 | 58 | 1010.3 |
| 20260505203129 | 75 | 195 | 10.0 | 18.0 | 0.00 | 0.00 | 0.00 | 57 | 1010.3 |
| 20260505203036 | 75 | 198 | 10.0 | 18.0 | 0.00 | 0.00 | 0.00 | 56 | 1010.4 |
| 20260505202921 | 75 | 197 | 8.0 | 18.0 | 0.00 | 0.00 | 0.00 | 56 | 1010.4 |
| 20260505202849 | 75 | 238 | 9.0 | 18.0 | 0.00 | 0.00 | 0.00 | 54 | 1010.3 |
| 20260505202735 | 75 | 145 | 9.0 | 18.0 | 0.00 | 0.00 | 0.00 | 53 | 1010.4 |
| 20260505202621 | 75 | 182 | 8.0 | 20.0 | 0.00 | 0.00 | 0.00 | 54 | 1010.4 |
| 20260505202528 | 75 | 154 | 9.0 | 20.0 | 0.00 | 0.00 | 0.00 | 53 | 1010.3 |
| 20260505202420 | 75 | 200 | 11.0 | 20.0 | 0.00 | 0.00 | 0.00 | 54 | 1010.4 |
| 20260505202347 | 75 | 142 | 11.0 | 20.0 | 0.00 | 0.00 | 0.00 | 53 | 1010.4 |
| 20260505202233 | 75 | 122 | 10.0 | 16.0 | 0.00 | 0.00 | 0.00 | 54 | 1010.4 |
| 20260505202140 | 75 | 155 | 10.0 | 15.0 | 0.00 | 0.00 | 0.00 | 54 | 1010.4 |
| 20260505202109 | 75 | 164 | 9.0 | 15.0 | 0.00 | 0.00 | 0.00 | 53 | 1010.3 |
| 20260505201823 | 74 | 209 | 8.0 | 15.0 | 0.00 | 0.00 | 0.00 | 53 | 1010.3 |
| 20260505201714 | 74 | 163 | 8.0 | 15.0 | 0.00 | 0.00 | 0.00 | 54 | 1010.5 |
| 20260505201642 | 74 | 190 | 7.0 | 15.0 | 0.00 | 0.00 | 0.00 | 53 | 1010.5 |
| 20260505201527 | 74 | 138 | 7.0 | 15.0 | 0.00 | 0.00 | 0.00 | 53 | 1010.5 |
| 20260505201434 | 74 | 179 | 8.0 | 15.0 | 0.00 | 0.00 | 0.00 | 53 | 1010.5 |
| 20260505201321 | 74 | 122 | 8.0 | 15.0 | 0.00 | 0.00 | 0.00 | 54 | 1010.5 |
| 20260505201248 | 74 | 145 | 9.0 | 15.0 | 0.00 | 0.00 | 0.00 | 53 | 1010.5 |
| 20260505201120 | 74 | 180 | 9.0 | 15.0 | 0.00 | 0.00 | 0.00 | 53 | 1010.5 |
| 20260505201028 | 74 | 158 | 9.0 | 15.0 | 0.00 | 0.00 | 0.00 | 54 | 1010.5 |
| 20260505200915 | 74 | 148 | 8.0 | 12.0 | 0.00 | 0.00 | 0.00 | 54 | 1010.5 |
| 20260505200822 | 74 | 162 | 7.0 | 14.0 | 0.00 | 0.00 | 0.00 | 54 | 1010.5 |
| 20260505200728 | 74 | 158 | 7.0 | 14.0 | 0.00 | 0.00 | 0.00 | 54 | 1010.5 |
| 20260505200636 | 74 | 176 | 7.0 | 14.0 | 0.00 | 0.00 | 0.00 | 54 | 1010.5 |
| 20260505200549 | 74 | 170 | 7.0 | 14.0 | 0.00 | 0.00 | 0.00 | 54 | 1010.8 |
| 20260505200323 | 74 | 136 | 6.0 | 14.0 | 0.00 | 0.00 | 0.00 | 55 | 1010.5 |
| 20260505200211 | 73 | 182 | 6.0 | 14.0 | 0.00 | 0.00 | 0.00 | 55 | 1010.5 |
| 20260505200117 | 73 | 150 | 6.0 | 14.0 | 0.00 | 0.00 | 0.00 | 54 | 1010.5 |
| 20260505200044 | 73 | 202 | 7.0 | 14.0 | 0.00 | 0.00 | 0.00 | 54 | 1010.5 |
| 20260505195915 | 73 | 153 | 7.0 | 14.0 | 0.00 | 0.00 | 0.00 | 55 | 1010.6 |
| 20260505195822 | 73 | 146 | 6.0 | 10.0 | 0.00 | 0.00 | 0.00 | 54 | 1010.6 |
| 20260505195729 | 73 | 171 | 7.0 | 14.0 | 0.00 | 0.00 | 0.00 | 54 | 1010.8 |
| 20260505195617 | 73 | 147 | 7.0 | 14.0 | 0.00 | 0.00 | 0.00 | 54 | 1010.8 |
| 20260505195544 | 74 | 168 | 8.0 | 14.0 | 0.00 | 0.00 | 0.00 | 54 | 1010.8 |
| 20260505195410 | 73 | 146 | 6.0 | 14.0 | 0.00 | 0.00 | 0.00 | 54 | 1010.8 |
| 20260505195339 | 74 | 169 | 6.0 | 14.0 | 0.00 | 0.00 | 0.00 | 54 | 1010.7 |
| 20260505195228 | 74 | 76 | 8.0 | 14.0 | 0.00 | 0.00 | 0.00 | 54 | 1010.7 |
| 20260505195116 | 74 | 161 | 9.0 | 14.0 | 0.00 | 0.00 | 0.00 | 53 | 1010.7 |
| 20260505195046 | 74 | 171 | 8.0 | 14.0 | 0.00 | 0.00 | 0.00 | 53 | 1010.7 |
| 20260505194819 | 74 | 185 | 6.0 | 10.0 | 0.00 | 0.00 | 0.00 | 53 | 1010.7 |
| 20260505194710 | 74 | 113 | 8.0 | 10.0 | 0.00 | 0.00 | 0.00 | 54 | 1010.7 |
| 20260505194637 | 74 | 156 | 7.0 | 10.0 | 0.00 | 0.00 | 0.00 | 53 | 1010.7 |
| 20260505194543 | 74 | 166 | 6.0 | 12.0 | 0.00 | 0.00 | 0.00 | 54 | 1010.7 |
| 20260505194429 | 74 | 146 | 6.0 | 14.0 | 0.00 | 0.00 | 0.00 | 53 | 1010.6 |
| 20260505194318 | 74 | 170 | 6.0 | 14.0 | 0.00 | 0.00 | 0.00 | 53 | 1010.7 |
| 20260505194226 | 74 | 159 | 6.0 | 14.0 | 0.00 | 0.00 | 0.00 | 53 | 1010.7 |
| 20260505194132 | 74 | 157 | 6.0 | 14.0 | 0.00 | 0.00 | 0.00 | 53 | 1010.6 |
| 20260505194023 | 74 | 148 | 6.0 | 15.0 | 0.00 | 0.00 | 0.00 | 53 | 1010.6 |
| 20260505193911 | 74 | 140 | 6.0 | 15.0 | 0.00 | 0.00 | 0.00 | 53 | 1010.5 |
| 20260505193839 | 74 | 156 | 6.0 | 15.0 | 0.00 | 0.00 | 0.00 | 53 | 1010.5 |
| 20260505193724 | 74 | 192 | 8.0 | 15.0 | 0.00 | 0.00 | 0.00 | 52 | 1010.5 |
| 20260505193612 | 74 | 180 | 7.0 | 15.0 | 0.00 | 0.00 | 0.00 | 53 | 1010.5 |
| 20260505193547 | 74 | 141 | 7.0 | 15.0 | 0.00 | 0.00 | 0.00 | 52 | 1010.5 |
| 20260505193320 | 74 | 161 | 9.0 | 15.0 | 0.00 | 0.00 | 0.00 | 52 | 1010.6 |
| 20260505193228 | 74 | 163 | 10.0 | 15.0 | 0.00 | 0.00 | 0.00 | 52 | 1010.6 |
| 20260505193115 | 74 | 132 | 8.0 | 14.0 | 0.00 | 0.00 | 0.00 | 53 | 1010.7 |
| 20260505193022 | 74 | 198 | 8.0 | 14.0 | 0.00 | 0.00 | 0.00 | 53 | 1010.7 |
| 20260505192915 | 74 | 159 | 7.0 | 14.0 | 0.00 | 0.00 | 0.00 | 54 | 1010.8 |
| 20260505192822 | 74 | 162 | 6.0 | 14.0 | 0.00 | 0.00 | 0.00 | 53 | 1010.8 |
| 20260505192729 | 74 | 190 | 5.0 | 14.0 | 0.00 | 0.00 | 0.00 | 53 | 1010.8 |
| 20260505192617 | 74 | 90 | 6.0 | 14.0 | 0.00 | 0.00 | 0.00 | 52 | 1010.8 |
| 20260505192524 | 74 | 194 | 7.0 | 14.0 | 0.00 | 0.00 | 0.00 | 52 | 1010.8 |
| 20260505192416 | 74 | 163 | 7.0 | 15.0 | 0.00 | 0.00 | 0.00 | 51 | 1010.8 |
| 20260505192323 | 74 | 158 | 6.0 | 16.0 | 0.00 | 0.00 | 0.00 | 53 | 1010.8 |
| 20260505192231 | 74 | 131 | 6.0 | 16.0 | 0.00 | 0.00 | 0.00 | 51 | 1010.7 |
| 20260505192137 | 74 | 158 | 7.0 | 16.0 | 0.00 | 0.00 | 0.00 | 51 | 1010.7 |
| 20260505192046 | 74 | 184 | 6.0 | 16.0 | 0.00 | 0.00 | 0.00 | 51 | 1010.7 |
| 20260505191821 | 75 | 144 | 5.0 | 16.0 | 0.00 | 0.00 | 0.00 | 49 | 1011.0 |
| 20260505191713 | 75 | 153 | 8.0 | 16.0 | 0.00 | 0.00 | 0.00 | 48 | 1011.3 |
| 20260505191620 | 75 | 158 | 10.0 | 16.0 | 0.00 | 0.00 | 0.00 | 48 | 1011.3 |
| 20260505191529 | 75 | 196 | 11.0 | 16.0 | 0.00 | 0.00 | 0.00 | 48 | 1011.3 |
| 20260505191417 | 75 | 199 | 8.0 | 16.0 | 0.00 | 0.00 | 0.00 | 47 | 1011.6 |
| 20260505191325 | 75 | 180 | 6.0 | 13.0 | 0.00 | 0.00 | 0.00 | 48 | 1011.6 |
| 20260505191216 | 75 | 195 | 8.0 | 13.0 | 0.00 | 0.00 | 0.00 | 48 | 1011.8 |
| 20260505191123 | 75 | 182 | 8.0 | 13.0 | 0.00 | 0.00 | 0.00 | 47 | 1011.8 |
| 20260505191010 | 75 | 188 | 9.0 | 13.0 | 0.00 | 0.00 | 0.00 | 47 | 1011.9 |
| 20260505190919 | 75 | 165 | 8.0 | 13.0 | 0.00 | 0.00 | 0.00 | 47 | 1012.0 |
| 20260505190825 | 75 | 197 | 7.0 | 15.0 | 0.00 | 0.00 | 0.00 | 47 | 1012.0 |
| 20260505190718 | 75 | 217 | 8.0 | 15.0 | 0.00 | 0.00 | 0.00 | 46 | 1012.1 |
| 20260505190645 | 75 | 180 | 8.0 | 15.0 | 0.00 | 0.00 | 0.00 | 46 | 1012.1 |
| 20260505190615 | 76 | 175 | 8.0 | 15.0 | 0.00 | 0.00 | 0.00 | 47 | 1012.1 |
| 20260505190328 | 76 | 186 | 4.0 | 15.0 | 0.00 | 0.00 | 0.00 | 47 | 1012.2 |
| 20260505190213 | 76 | 144 | 5.0 | 15.0 | 0.00 | 0.00 | 0.00 | 46 | 1012.4 |
| 20260505190125 | 76 | 184 | 8.0 | 17.0 | 0.00 | 0.00 | 0.00 | 46 | 1012.4 |
| 20260505190013 | 76 | 193 | 9.0 | 17.0 | 0.00 | 0.00 | 0.00 | 46 | 1012.4 |
| 20260505185921 | 76 | 191 | 8.0 | 17.0 | 0.00 | 0.00 | 0.00 | 47 | 1012.4 |
| 20260505185829 | 76 | 219 | 7.0 | 17.0 | 0.00 | 0.00 | 0.00 | 47 | 1012.4 |
| 20260505185715 | 76 | 260 | 5.0 | 17.0 | 0.00 | 0.00 | 0.00 | 46 | 1012.4 |
| 20260505185624 | 76 | 188 | 6.0 | 17.0 | 0.00 | 0.00 | 0.00 | 47 | 1012.4 |
| 20260505185514 | 76 | 144 | 8.0 | 17.0 | 0.00 | 0.00 | 0.00 | 45 | 1012.4 |
| 20260505185422 | 76 | 207 | 9.0 | 17.0 | 0.00 | 0.00 | 0.00 | 45 | 1012.4 |
| 20260505185329 | 76 | 192 | 9.0 | 20.0 | 0.00 | 0.00 | 0.00 | 46 | 1012.5 |
| 20260505185216 | 76 | 187 | 7.0 | 20.0 | 0.00 | 0.00 | 0.00 | 46 | 1012.5 |
| 20260505185123 | 76 | 203 | 7.0 | 20.0 | 0.00 | 0.00 | 0.00 | 46 | 1012.5 |
| 20260505185058 | 76 | 186 | 7.0 | 20.0 | 0.00 | 0.00 | 0.00 | 46 | 1012.5 |
| 20260505184811 | 76 | 247 | 6.0 | 20.0 | 0.00 | 0.00 | 0.00 | 46 | 1012.5 |
| 20260505184719 | 76 | 190 | 8.0 | 20.0 | 0.00 | 0.00 | 0.00 | 44 | 1012.5 |
| 20260505184626 | 76 | 221 | 10.0 | 20.0 | 0.00 | 0.00 | 0.00 | 44 | 1012.5 |
| 20260505184518 | 77 | 201 | 12.0 | 20.0 | 0.00 | 0.00 | 0.00 | 44 | 1012.5 |
| 20260505184426 | 77 | 229 | 11.0 | 20.0 | 0.00 | 0.00 | 0.00 | 44 | 1012.5 |
| 20260505184315 | 77 | 184 | 8.0 | 14.0 | 0.00 | 0.00 | 0.00 | 44 | 1012.5 |
| 20260505184223 | 77 | 196 | 7.0 | 17.0 | 0.00 | 0.00 | 0.00 | 43 | 1012.5 |
| 20260505184110 | 77 | 227 | 7.0 | 17.0 | 0.00 | 0.00 | 0.00 | 43 | 1012.5 |
| 20260505184017 | 77 | 179 | 9.0 | 17.0 | 0.00 | 0.00 | 0.00 | 42 | 1012.5 |
| 20260505183928 | 77 | 162 | 10.0 | 17.0 | 0.00 | 0.00 | 0.00 | 43 | 1012.5 |
| 20260505183835 | 77 | 196 | 8.0 | 17.0 | 0.00 | 0.00 | 0.00 | 43 | 1012.6 |
| 20260505183721 | 77 | 167 | 7.0 | 17.0 | 0.00 | 0.00 | 0.00 | 45 | 1012.6 |
| 20260505183610 | 77 | 180 | 10.0 | 17.0 | 0.00 | 0.00 | 0.00 | 43 | 1012.6 |
| 20260505183544 | 77 | 182 | 10.0 | 17.0 | 0.00 | 0.00 | 0.00 | 43 | 1012.6 |
| 20260505183319 | 77 | 180 | 10.0 | 17.0 | 0.00 | 0.00 | 0.00 | 42 | 1012.5 |
| 20260505183226 | 77 | 197 | 9.0 | 16.0 | 0.00 | 0.00 | 0.00 | 43 | 1012.5 |
| 20260505183114 | 77 | 180 | 10.0 | 16.0 | 0.00 | 0.00 | 0.00 | 44 | 1012.5 |
| 20260505183021 | 77 | 200 | 10.0 | 16.0 | 0.00 | 0.00 | 0.00 | 44 | 1012.5 |
| 20260505182930 | 77 | 241 | 10.0 | 18.0 | 0.00 | 0.00 | 0.00 | 45 | 1012.4 |
| 20260505182821 | 77 | 184 | 10.0 | 16.0 | 0.00 | 0.00 | 0.00 | 44 | 1012.5 |
| 20260505182728 | 77 | 169 | 9.0 | 15.0 | 0.00 | 0.00 | 0.00 | 44 | 1012.5 |
| 20260505182616 | 77 | 215 | 8.0 | 21.0 | 0.00 | 0.00 | 0.00 | 44 | 1012.4 |
| 20260505182523 | 77 | 225 | 6.0 | 21.0 | 0.00 | 0.00 | 0.00 | 45 | 1012.4 |
| 20260505182410 | 77 | 216 | 6.0 | 22.0 | 0.00 | 0.00 | 0.00 | 45 | 1012.6 |
| 20260505182321 | 77 | 195 | 8.0 | 22.0 | 0.00 | 0.00 | 0.00 | 45 | 1012.6 |
| 20260505182229 | 77 | 214 | 9.0 | 22.0 | 0.00 | 0.00 | 0.00 | 44 | 1012.5 |
| 20260505182136 | 77 | 199 | 11.0 | 22.0 | 0.00 | 0.00 | 0.00 | 44 | 1012.6 |
| 20260505182106 | 77 | 198 | 11.0 | 22.0 | 0.00 | 0.00 | 0.00 | 43 | 1012.6 |
| 20260505181818 | 77 | 186 | 11.0 | 22.0 | 0.00 | 0.00 | 0.00 | 42 | 1012.7 |
| 20260505181710 | 77 | 200 | 11.0 | 22.0 | 0.00 | 0.00 | 0.00 | 41 | 1012.7 |
| 20260505181616 | 77 | 150 | 12.0 | 22.0 | 0.00 | 0.00 | 0.00 | 43 | 1012.7 |
| 20260505181524 | 77 | 161 | 10.0 | 22.0 | 0.00 | 0.00 | 0.00 | 42 | 1012.7 |
| 20260505181412 | 77 | 184 | 7.0 | 19.0 | 0.00 | 0.00 | 0.00 | 43 | 1012.6 |
| 20260505181318 | 77 | 110 | 6.0 | 19.0 | 0.00 | 0.00 | 0.00 | 41 | 1012.7 |
| 20260505181246 | 77 | 163 | 8.0 | 19.0 | 0.00 | 0.00 | 0.00 | 41 | 1012.7 |
| 20260505181136 | 77 | 190 | 11.0 | 19.0 | 0.00 | 0.00 | 0.00 | 42 | 1012.8 |
| 20260505181022 | 77 | 184 | 14.0 | 19.0 | 0.00 | 0.00 | 0.00 | 41 | 1012.8 |
| 20260505180910 | 77 | 184 | 11.0 | 19.0 | 0.00 | 0.00 | 0.00 | 41 | 1012.8 |
| 20260505180816 | 77 | 199 | 9.0 | 19.0 | 0.00 | 0.00 | 0.00 | 43 | 1012.8 |
| 20260505180745 | 77 | 209 | 10.0 | 19.0 | 0.00 | 0.00 | 0.00 | 42 | 1012.8 |
| 20260505180631 | 77 | 201 | 11.0 | 19.0 | 0.00 | 0.00 | 0.00 | 43 | 1012.8 |
| 20260505180544 | 77 | 187 | 10.0 | 20.0 | 0.00 | 0.00 | 0.00 | 43 | 1012.8 |
| 20260505180318 | 77 | 187 | 10.0 | 16.0 | 0.00 | 0.00 | 0.00 | 42 | 1012.8 |
| 20260505180247 | 77 | 217 | 10.0 | 16.0 | 0.00 | 0.00 | 0.00 | 43 | 1012.8 |
| 20260505180114 | 77 | 201 | 9.0 | 18.0 | 0.00 | 0.00 | 0.00 | 43 | 1012.8 |
| 20260505180020 | 77 | 223 | 7.0 | 18.0 | 0.00 | 0.00 | 0.00 | 43 | 1012.8 |
| 20260505175912 | 77 | 186 | 8.0 | 18.0 | 0.00 | 0.00 | 0.00 | 43 | 1012.7 |
| 20260505175821 | 77 | 202 | 8.0 | 18.0 | 0.00 | 0.00 | 0.00 | 44 | 1012.7 |
| 20260505175729 | 77 | 213 | 10.0 | 18.0 | 0.00 | 0.00 | 0.00 | 44 | 1012.7 |
| 20260505175615 | 76 | 264 | 9.0 | 18.0 | 0.00 | 0.00 | 0.00 | 43 | 1012.5 |
| 20260505175523 | 76 | 221 | 8.0 | 18.0 | 0.00 | 0.00 | 0.00 | 45 | 1012.5 |
| 20260505175430 | 76 | 200 | 9.0 | 18.0 | 0.00 | 0.00 | 0.00 | 44 | 1012.6 |
| 20260505175321 | 76 | 182 | 11.0 | 18.0 | 0.00 | 0.00 | 0.00 | 42 | 1012.6 |
| 20260505175228 | 76 | 209 | 10.0 | 18.0 | 0.00 | 0.00 | 0.00 | 43 | 1012.7 |
| 20260505175116 | 76 | 173 | 10.0 | 18.0 | 0.00 | 0.00 | 0.00 | 45 | 1012.5 |
| 20260505175046 | 76 | 132 | 11.0 | 18.0 | 0.00 | 0.00 | 0.00 | 44 | 1012.5 |
| 20260505174824 | 76 | 188 | 11.0 | 18.0 | 0.00 | 0.00 | 0.00 | 44 | 1012.6 |
| 20260505174710 | 76 | 157 | 10.0 | 19.0 | 0.00 | 0.00 | 0.00 | 45 | 1012.6 |
| 20260505174618 | 76 | 219 | 10.0 | 19.0 | 0.00 | 0.00 | 0.00 | 43 | 1012.6 |
| 20260505174545 | 76 | 223 | 9.0 | 19.0 | 0.00 | 0.00 | 0.00 | 44 | 1012.6 |
| 20260505174412 | 76 | 258 | 7.0 | 19.0 | 0.00 | 0.00 | 0.00 | 46 | 1012.5 |
| 20260505174319 | 76 | 200 | 6.0 | 19.0 | 0.00 | 0.00 | 0.00 | 46 | 1012.6 |
| 20260505174230 | 76 | 214 | 5.0 | 19.0 | 0.00 | 0.00 | 0.00 | 46 | 1012.6 |
| 20260505174117 | 76 | 238 | 6.0 | 19.0 | 0.00 | 0.00 | 0.00 | 48 | 1012.7 |
| 20260505174026 | 76 | 181 | 8.0 | 19.0 | 0.00 | 0.00 | 0.00 | 47 | 1012.7 |
| 20260505173912 | 76 | 211 | 10.0 | 20.0 | 0.00 | 0.00 | 0.00 | 46 | 1012.7 |
| 20260505173820 | 76 | 180 | 10.0 | 20.0 | 0.00 | 0.00 | 0.00 | 47 | 1012.7 |
| 20260505173746 | 76 | 194 | 11.0 | 20.0 | 0.00 | 0.00 | 0.00 | 46 | 1012.7 |
| 20260505173637 | 76 | 177 | 9.0 | 20.0 | 0.00 | 0.00 | 0.00 | 49 | 1012.7 |
| 20260505173607 | 76 | 145 | 8.0 | 12.0 | 0.00 | 0.00 | 0.00 | 46 | 1012.7 |
| 20260505173320 | 76 | 240 | 8.0 | 12.0 | 0.00 | 0.00 | 0.00 | 46 | 1012.7 |
| 20260505173228 | 76 | 214 | 9.0 | 14.0 | 0.00 | 0.00 | 0.00 | 46 | 1012.8 |
| 20260505173115 | 76 | 186 | 9.0 | 16.0 | 0.00 | 0.00 | 0.00 | 46 | 1012.8 |
| 20260505173026 | 76 | 197 | 8.0 | 16.0 | 0.00 | 0.00 | 0.00 | 46 | 1012.8 |
| 20260505172913 | 76 | 187 | 7.0 | 16.0 | 0.00 | 0.00 | 0.00 | 45 | 1012.8 |
| 20260505172822 | 76 | 205 | 8.0 | 16.0 | 0.00 | 0.00 | 0.00 | 46 | 1012.8 |
| 20260505172749 | 76 | 267 | 8.0 | 16.0 | 0.00 | 0.00 | 0.00 | 46 | 1012.8 |
| 20260505172615 | 76 | 267 | 7.0 | 16.0 | 0.00 | 0.00 | 0.00 | 45 | 1012.8 |
| 20260505172523 | 76 | 165 | 9.0 | 20.0 | 0.00 | 0.00 | 0.00 | 45 | 1012.8 |
| 20260505172434 | 76 | 175 | 11.0 | 20.0 | 0.00 | 0.00 | 0.00 | 44 | 1012.8 |
| 20260505172321 | 76 | 211 | 11.0 | 20.0 | 0.00 | 0.00 | 0.00 | 45 | 1012.8 |
| 20260505172227 | 76 | 206 | 9.0 | 20.0 | 0.00 | 0.00 | 0.00 | 45 | 1012.9 |
| 20260505172115 | 76 | 247 | 8.0 | 20.0 | 0.00 | 0.00 | 0.00 | 44 | 1012.8 |
| 20260505172051 | 76 | 211 | 8.0 | 20.0 | 0.00 | 0.00 | 0.00 | 43 | 1012.8 |
| 20260505171844 | 76 | 246 | 9.0 | 20.0 | 0.00 | 0.00 | 0.00 | 43 | 1012.9 |
| 20260505171710 | 76 | 199 | 9.0 | 20.0 | 0.00 | 0.00 | 0.00 | 44 | 1013.0 |
| 20260505171617 | 76 | 186 | 9.0 | 14.0 | 0.00 | 0.00 | 0.00 | 44 | 1013.0 |
| 20260505171526 | 76 | 206 | 10.0 | 14.0 | 0.00 | 0.00 | 0.00 | 44 | 1013.0 |
| 20260505171413 | 77 | 276 | 8.0 | 15.0 | 0.00 | 0.00 | 0.00 | 46 | 1013.0 |
| 20260505171325 | 77 | 228 | 6.0 | 14.0 | 0.00 | 0.00 | 0.00 | 46 | 1013.0 |
| 20260505171232 | 77 | 204 | 8.0 | 14.0 | 0.00 | 0.00 | 0.00 | 46 | 1013.0 |
| 20260505171120 | 77 | 329 | 8.0 | 14.0 | 0.00 | 0.00 | 0.00 | 48 | 1013.0 |
| 20260505171028 | 77 | 184 | 6.0 | 14.0 | 0.00 | 0.00 | 0.00 | 50 | 1013.1 |
| 20260505170915 | 76 | 142 | 7.0 | 14.0 | 0.00 | 0.00 | 0.00 | 48 | 1013.0 |
| 20260505170843 | 76 | 196 | 9.0 | 14.0 | 0.00 | 0.00 | 0.00 | 48 | 1013.0 |
| 20260505170714 | 76 | 249 | 11.0 | 17.0 | 0.00 | 0.00 | 0.00 | 50 | 1013.1 |
| 20260505170621 | 76 | 179 | 9.0 | 16.0 | 0.00 | 0.00 | 0.00 | 48 | 1013.1 |
| 20260505170551 | 76 | 121 | 7.0 | 16.0 | 0.00 | 0.00 | 0.00 | 48 | 1013.0 |
| 20260505170324 | 76 | 195 | 6.0 | 14.0 | 0.00 | 0.00 | 0.00 | 48 | 1013.2 |
| 20260505170210 | 76 | 151 | 7.0 | 14.0 | 0.00 | 0.00 | 0.00 | 51 | 1013.3 |
| 20260505170122 | 76 | 197 | 7.0 | 14.0 | 0.00 | 0.00 | 0.00 | 49 | 1013.3 |
| 20260505170029 | 76 | 208 | 6.0 | 14.0 | 0.00 | 0.00 | 0.00 | 49 | 1013.3 |
| 20260505165936 | 76 | 113 | 8.0 | 14.0 | 0.00 | 0.00 | 0.00 | 48 | 1013.3 |
| 20260505165821 | 76 | 188 | 9.0 | 14.0 | 0.00 | 0.00 | 0.00 | 48 | 1013.3 |
| 20260505165747 | 76 | 214 | 9.0 | 17.0 | 0.00 | 0.00 | 0.00 | 50 | 1013.3 |
| 20260505165614 | 76 | 175 | 8.0 | 17.0 | 0.00 | 0.00 | 0.00 | 49 | 1013.2 |
| 20260505165541 | 76 | 152 | 7.0 | 17.0 | 0.00 | 0.00 | 0.00 | 49 | 1013.2 |
| 20260505165412 | 76 | 163 | 8.0 | 17.0 | 0.00 | 0.00 | 0.00 | 50 | 1013.2 |
| 20260505165318 | 76 | 155 | 8.0 | 17.0 | 0.00 | 0.00 | 0.00 | 49 | 1013.2 |
| 20260505165225 | 76 | 132 | 9.0 | 17.0 | 0.00 | 0.00 | 0.00 | 49 | 1013.2 |
| 20260505165112 | 76 | 165 | 8.0 | 17.0 | 0.00 | 0.00 | 0.00 | 50 | 1013.2 |
| 20260505165049 | 76 | 149 | 8.0 | 17.0 | 0.00 | 0.00 | 0.00 | 50 | 1013.2 |
| 20260505164823 | 75 | 142 | 8.0 | 17.0 | 0.00 | 0.00 | 0.00 | 50 | 1013.4 |
| 20260505164729 | 75 | 172 | 8.0 | 14.0 | 0.00 | 0.00 | 0.00 | 50 | 1013.4 |
| 20260505164617 | 75 | 188 | 10.0 | 14.0 | 0.00 | 0.00 | 0.00 | 50 | 1013.4 |
| 20260505164523 | 75 | 215 | 10.0 | 14.0 | 0.00 | 0.00 | 0.00 | 50 | 1013.4 |
| 20260505164410 | 75 | 189 | 9.0 | 14.0 | 0.00 | 0.00 | 0.00 | 51 | 1013.5 |
| 20260505164321 | 75 | 190 | 8.0 | 14.0 | 0.00 | 0.00 | 0.00 | 50 | 1013.5 |
| 20260505164229 | 75 | 188 | 7.0 | 14.0 | 0.00 | 0.00 | 0.00 | 51 | 1013.4 |
| 20260505164116 | 75 | 140 | 8.0 | 14.0 | 0.00 | 0.00 | 0.00 | 51 | 1013.3 |